Time,TemperatureF,DewpointF,PressureIn,WindDirection,WindDirectionDegrees,WindSpeedMPH,WindSpeedGustMPH,Humidity,HourlyPrecipIn,Conditions,Clouds,dailyrainin,SoftwareType,DateUTC
2013-03-11 00:00:00,66.2,50.5,30.42,North,0,0.0,0.0,57,0.00,,BKN055,0.00,VWS V14.01,2013-03-11 04:00:00,
2013-03-11 00:01:00,66.2,50.5,30.42,North,0,0.0,0.0,57,0.00,,BKN055,0.00,VWS V14.01,2013-03-11 04:01:00,
2013-03-11 00:02:00,66.2,50.5,30.42,North,0,0.0,0.0,57,0.00,,BKN055,0.00,VWS V14.01,2013-03-11 04:02:00,
2013-03-11 00:04:00,66.2,50.5,30.42,North,0,0.0,0.0,57,0.00,,BKN055,0.00,VWS V14.01,2013-03-11 04:04:00,
2013-03-11 00:07:00,66.0,50.8,30.42,North,0,0.0,0.0,58,0.00,,BKN055,0.00,VWS V14.01,2013-03-11 04:07:00,
2013-03-11 00:10:00,66.0,50.8,30.42,North,0,0.0,0.0,58,0.00,,BKN055,0.00,VWS V14.01,2013-03-11 04:10:00,
2013-03-11 00:11:00,66.0,50.8,30.42,North,0,0.0,0.0,58,0.00,,BKN055,0.00,VWS V14.01,2013-03-11 04:11:00,
2013-03-11 00:15:00,65.8,50.7,30.42,North,0,0.0,0.0,58,0.00,,BKN055,0.00,VWS V14.01,2013-03-11 04:15:00,
2013-03-11 00:17:00,65.8,50.7,30.42,North,0,0.0,0.0,58,0.00,,BKN055,0.00,VWS V14.01,2013-03-11 04:17:00,
2013-03-11 00:20:00,65.7,51.0,30.42,North,0,0.0,0.0,59,0.00,,BKN055,0.00,VWS V14.01,2013-03-11 04:20:00,
2013-03-11 00:22:00,65.7,51.0,30.42,North,0,0.0,0.0,59,0.00,,BKN055,0.00,VWS V14.01,2013-03-11 04:22:00,
2013-03-11 00:23:00,65.7,51.0,30.42,North,0,0.0,0.0,59,0.00,,BKN055,0.00,VWS V14.01,2013-03-11 04:23:00,
2013-03-11 00:24:00,65.7,51.0,30.42,North,0,0.0,0.0,59,0.00,,BKN055,0.00,VWS V14.01,2013-03-11 04:24:00,
2013-03-11 00:29:00,65.5,50.8,30.42,North,0,0.0,0.0,59,0.00,,BKN055,0.00,VWS V14.01,2013-03-11 04:29:00,
2013-03-11 00:30:00,65.5,50.8,30.42,North,0,0.0,0.0,59,0.00,,BKN055,0.00,VWS V14.01,2013-03-11 04:30:00,
2013-03-11 00:33:00,65.5,50.8,30.42,North,0,0.0,0.0,59,0.00,,BKN055,0.00,VWS V14.01,2013-03-11 04:33:00,
2013-03-11 00:34:00,65.5,50.8,30.42,North,0,0.0,0.0,59,0.00,,BKN055,0.00,VWS V14.01,2013-03-11 04:34:00,
2013-03-11 00:35:00,65.5,50.8,30.42,North,0,0.0,0.0,59,0.00,,BKN055,0.00,VWS V14.01,2013-03-11 04:35:00,
2013-03-11 00:40:00,65.3,51.1,30.42,North,0,0.0,0.0,60,0.00,,BKN055,0.00,VWS V14.01,2013-03-11 04:40:00,
2013-03-11 00:41:00,65.1,50.9,30.42,North,0,0.0,0.0,60,0.00,,BKN055,0.00,VWS V14.01,2013-03-11 04:41:00,
2013-03-11 00:47:00,65.1,50.9,30.42,North,0,0.0,0.0,60,0.00,,BKN055,0.00,VWS V14.01,2013-03-11 04:47:00,
2013-03-11 00:48:00,64.9,51.2,30.42,North,0,0.0,0.0,61,0.00,,BKN055,0.00,VWS V14.01,2013-03-11 04:48:00,
2013-03-11 00:52:00,64.8,51.0,30.42,North,0,0.0,0.0,61,0.00,,BKN055,0.00,VWS V14.01,2013-03-11 04:52:00,
2013-03-11 00:55:00,64.8,51.0,30.42,North,0,0.0,0.0,61,0.00,,BKN055,0.00,VWS V14.01,2013-03-11 04:55:00,
2013-03-11 00:58:00,64.6,51.3,30.42,North,0,0.0,0.0,62,0.00,,BKN055,0.00,VWS V14.01,2013-03-11 04:58:00,
2013-03-11 00:59:00,64.6,51.3,30.42,North,0,0.0,0.0,62,0.00,,BKN055,0.00,VWS V14.01,2013-03-11 04:59:00,
2013-03-11 01:00:00,64.6,51.3,30.42,North,0,0.0,0.0,62,0.00,,BKN055,0.00,VWS V14.01,2013-03-11 05:00:00,
2013-03-11 01:03:00,64.4,51.1,30.42,North,0,0.0,0.0,62,0.00,,BKN055,0.00,VWS V14.01,2013-03-11 05:03:00,
2013-03-11 01:06:00,64.4,51.1,30.42,North,0,0.0,0.0,62,0.00,,BKN055,0.00,VWS V14.01,2013-03-11 05:06:00,
2013-03-11 01:08:00,64.4,51.5,30.42,North,0,0.0,0.0,63,0.00,,BKN055,0.00,VWS V14.01,2013-03-11 05:08:00,
2013-03-11 01:09:00,64.4,51.5,30.42,North,0,0.0,0.0,63,0.00,,BKN055,0.00,VWS V14.01,2013-03-11 05:09:00,
2013-03-11 01:10:00,64.4,51.5,30.42,North,0,0.0,0.0,63,0.00,,BKN055,0.00,VWS V14.01,2013-03-11 05:10:00,
2013-03-11 01:13:00,64.4,51.5,30.42,North,0,0.0,0.0,63,0.00,,BKN055,0.00,VWS V14.01,2013-03-11 05:13:00,
2013-03-11 01:15:00,64.4,52.0,30.42,North,0,0.0,0.0,64,0.00,,BKN055,0.00,VWS V14.01,2013-03-11 05:15:00,
2013-03-11 01:16:00,64.2,51.8,30.42,North,0,0.0,0.0,64,0.00,,BKN055,0.00,VWS V14.01,2013-03-11 05:16:00,
2013-03-11 01:18:00,64.2,51.8,30.42,North,0,0.0,0.0,64,0.00,,BKN055,0.00,VWS V14.01,2013-03-11 05:18:00,
2013-03-11 01:22:00,64.2,52.2,30.42,North,0,0.0,0.0,65,0.00,,BKN055,0.00,VWS V14.01,2013-03-11 05:22:00,
2013-03-11 01:23:00,64.2,52.2,30.42,North,0,0.0,0.0,65,0.00,,BKN055,0.00,VWS V14.01,2013-03-11 05:23:00,
2013-03-11 01:25:00,64.2,52.2,30.42,North,0,0.0,0.0,65,0.00,,BKN055,0.00,VWS V14.01,2013-03-11 05:25:00,
2013-03-11 01:27:00,64.2,52.2,30.42,North,0,0.0,0.0,65,0.00,,BKN055,0.00,VWS V14.01,2013-03-11 05:27:00,
2013-03-11 01:30:00,64.0,52.0,30.42,North,0,0.0,0.0,65,0.00,,BKN055,0.00,VWS V14.01,2013-03-11 05:30:00,
2013-03-11 01:32:00,64.0,52.0,30.42,North,0,0.0,0.0,65,0.00,,BKN055,0.00,VWS V14.01,2013-03-11 05:32:00,
2013-03-11 01:35:00,64.0,52.0,30.42,North,0,0.0,0.0,65,0.00,,BKN055,0.00,VWS V14.01,2013-03-11 05:35:00,
2013-03-11 01:36:00,64.0,52.0,30.42,North,0,0.0,0.0,65,0.00,,BKN055,0.00,VWS V14.01,2013-03-11 05:36:00,
2013-03-11 01:37:00,64.0,52.0,30.42,North,0,0.0,0.0,65,0.00,,BKN055,0.00,VWS V14.01,2013-03-11 05:37:00,
2013-03-11 01:38:00,63.9,51.9,30.42,North,0,0.0,0.0,65,0.00,,BKN055,0.00,VWS V14.01,2013-03-11 05:38:00,
2013-03-11 01:41:00,63.9,52.3,30.42,North,0,0.0,0.0,66,0.00,,BKN055,0.00,VWS V14.01,2013-03-11 05:41:00,
2013-03-11 01:42:00,63.9,52.3,30.42,North,0,0.0,0.0,66,0.00,,BKN055,0.00,VWS V14.01,2013-03-11 05:42:00,
2013-03-11 01:44:00,63.9,52.3,30.42,North,0,0.0,0.0,66,0.00,,BKN055,0.00,VWS V14.01,2013-03-11 05:44:00,
2013-03-11 01:46:00,63.9,52.3,30.42,North,0,0.0,0.0,66,0.00,,BKN055,0.00,VWS V14.01,2013-03-11 05:46:00,
2013-03-11 01:49:00,63.7,52.1,30.42,North,0,0.0,0.0,66,0.00,,BKN055,0.00,VWS V14.01,2013-03-11 05:49:00,
2013-03-11 01:51:00,63.7,52.1,30.42,North,0,0.0,0.0,66,0.00,,BKN055,0.00,VWS V14.01,2013-03-11 05:51:00,
2013-03-11 01:52:00,63.7,52.1,30.42,North,0,0.0,0.0,66,0.00,,BKN055,0.00,VWS V14.01,2013-03-11 05:52:00,
2013-03-11 01:53:00,63.7,52.1,30.42,North,0,0.0,0.0,66,0.00,,BKN055,0.00,VWS V14.01,2013-03-11 05:53:00,
2013-03-11 01:56:00,63.7,52.1,30.42,North,0,0.0,0.0,66,0.00,,BKN055,0.00,VWS V14.01,2013-03-11 05:56:00,
2013-03-11 01:59:00,63.5,52.0,30.42,North,0,0.0,0.0,66,0.00,,BKN055,0.00,VWS V14.01,2013-03-11 05:59:00,
2013-03-11 02:02:00,63.5,52.0,30.42,North,0,0.0,0.0,66,0.00,,BKN055,0.00,VWS V14.01,2013-03-11 06:02:00,
2013-03-11 02:06:00,63.5,52.4,30.42,North,0,0.0,0.0,67,0.00,,BKN055,0.00,VWS V14.01,2013-03-11 06:06:00,
2013-03-11 02:07:00,63.5,52.4,30.42,North,0,0.0,0.0,67,0.00,,BKN055,0.00,VWS V14.01,2013-03-11 06:07:00,
2013-03-11 02:08:00,63.5,52.4,30.42,North,0,0.0,0.0,67,0.00,,BKN055,0.00,VWS V14.01,2013-03-11 06:08:00,
2013-03-11 02:13:00,63.3,52.2,30.42,North,0,0.0,0.0,67,0.00,,BKN055,0.00,VWS V14.01,2013-03-11 06:13:00,
2013-03-11 02:14:00,63.3,52.2,30.42,North,0,0.0,0.0,67,0.00,,BKN055,0.00,VWS V14.01,2013-03-11 06:14:00,
2013-03-11 02:15:00,63.3,52.2,30.42,North,0,0.0,0.0,67,0.00,,BKN055,0.00,VWS V14.01,2013-03-11 06:15:00,
2013-03-11 02:17:00,63.3,52.2,30.42,North,0,0.0,0.0,67,0.00,,BKN055,0.00,VWS V14.01,2013-03-11 06:17:00,
2013-03-11 02:19:00,63.3,52.2,30.42,North,0,0.0,0.0,67,0.00,,BKN055,0.00,VWS V14.01,2013-03-11 06:19:00,
2013-03-11 02:20:00,63.1,52.0,30.42,North,0,0.0,0.0,67,0.00,,BKN055,0.00,VWS V14.01,2013-03-11 06:20:00,
2013-03-11 02:22:00,63.1,52.0,30.42,North,0,0.0,0.0,67,0.00,,BKN055,0.00,VWS V14.01,2013-03-11 06:22:00,
2013-03-11 02:26:00,63.1,52.0,30.42,North,0,0.0,0.0,67,0.00,,BKN055,0.00,VWS V14.01,2013-03-11 06:26:00,
2013-03-11 02:27:00,63.1,52.0,30.39,North,0,0.0,0.0,67,0.00,,BKN055,0.00,VWS V14.01,2013-03-11 06:27:00,
2013-03-11 02:31:00,63.1,52.0,30.39,North,0,0.0,0.0,67,0.00,,BKN055,0.00,VWS V14.01,2013-03-11 06:31:00,
2013-03-11 02:34:00,63.0,51.8,30.39,North,0,0.0,0.0,67,0.00,,BKN055,0.00,VWS V14.01,2013-03-11 06:34:00,
2013-03-11 02:35:00,63.0,51.8,30.39,North,0,0.0,0.0,67,0.00,,BKN055,0.00,VWS V14.01,2013-03-11 06:35:00,
2013-03-11 02:38:00,63.0,51.8,30.39,North,0,0.0,0.0,67,0.00,,BKN055,0.00,VWS V14.01,2013-03-11 06:38:00,
2013-03-11 02:39:00,63.0,51.8,30.39,North,0,0.0,0.0,67,0.00,,BKN055,0.00,VWS V14.01,2013-03-11 06:39:00,
2013-03-11 02:41:00,63.0,51.8,30.39,North,0,0.0,0.0,67,0.00,,BKN055,0.00,VWS V14.01,2013-03-11 06:41:00,
2013-03-11 02:43:00,62.8,51.7,30.39,North,0,0.0,0.0,67,0.00,,BKN055,0.00,VWS V14.01,2013-03-11 06:43:00,
2013-03-11 02:45:00,62.8,52.1,30.39,North,0,0.0,0.0,68,0.00,,BKN055,0.00,VWS V14.01,2013-03-11 06:45:00,
2013-03-11 02:47:00,62.8,52.1,30.39,North,0,0.0,0.0,68,0.00,,BKN055,0.00,VWS V14.01,2013-03-11 06:47:00,
2013-03-11 02:52:00,62.6,51.9,30.39,North,0,0.0,0.0,68,0.00,,BKN055,0.00,VWS V14.01,2013-03-11 06:52:00,
2013-03-11 02:53:00,62.6,51.9,30.39,North,0,0.0,0.0,68,0.00,,BKN055,0.00,VWS V14.01,2013-03-11 06:53:00,
2013-03-11 02:54:00,62.6,51.9,30.39,North,0,0.0,0.0,68,0.00,,BKN055,0.00,VWS V14.01,2013-03-11 06:54:00,
2013-03-11 02:55:00,62.6,51.9,30.39,North,0,0.0,0.0,68,0.00,,BKN055,0.00,VWS V14.01,2013-03-11 06:55:00,
2013-03-11 02:58:00,62.6,51.9,30.39,North,0,0.0,0.0,68,0.00,,BKN055,0.00,VWS V14.01,2013-03-11 06:58:00,
2013-03-11 02:59:00,62.6,51.9,30.39,North,0,0.0,0.0,68,0.00,,BKN055,0.00,VWS V14.01,2013-03-11 06:59:00,
2013-03-11 03:00:00,62.4,51.7,30.39,North,0,0.0,0.0,68,0.00,,BKN055,0.00,VWS V14.01,2013-03-11 07:00:00,
2013-03-11 03:04:00,62.4,52.1,30.39,North,0,0.0,0.0,69,0.00,,,0.00,VWS V14.01,2013-03-11 07:04:00,
2013-03-11 03:06:00,62.2,52.0,30.39,North,0,0.0,0.0,69,0.00,,,0.00,VWS V14.01,2013-03-11 07:06:00,
2013-03-11 03:09:00,62.2,52.0,30.39,North,0,0.0,0.0,69,0.00,,,0.00,VWS V14.01,2013-03-11 07:09:00,
2013-03-11 03:10:00,62.2,52.0,30.39,North,0,0.0,0.0,69,0.00,,,0.00,VWS V14.01,2013-03-11 07:10:00,
2013-03-11 03:15:00,62.2,52.3,30.36,North,0,0.0,0.0,70,0.00,,,0.00,VWS V14.01,2013-03-11 07:15:00,
2013-03-11 03:16:00,62.1,52.2,30.36,North,0,0.0,0.0,70,0.00,,,0.00,VWS V14.01,2013-03-11 07:16:00,
2013-03-11 03:17:00,62.1,52.2,30.36,North,0,0.0,0.0,70,0.00,,,0.00,VWS V14.01,2013-03-11 07:17:00,
2013-03-11 03:20:00,62.1,52.2,30.36,North,0,0.0,0.0,70,0.00,,,0.00,VWS V14.01,2013-03-11 07:20:00,
2013-03-11 03:21:00,62.1,52.2,30.36,North,0,0.0,0.0,70,0.00,,,0.00,VWS V14.01,2013-03-11 07:21:00,
2013-03-11 03:23:00,62.1,52.2,30.36,North,0,0.0,0.0,70,0.00,,,0.00,VWS V14.01,2013-03-11 07:23:00,
2013-03-11 03:28:00,62.1,52.6,30.36,North,0,0.0,0.0,71,0.00,,,0.00,VWS V14.01,2013-03-11 07:28:00,
2013-03-11 03:29:00,62.1,52.6,30.36,North,0,0.0,0.0,71,0.00,,,0.00,VWS V14.01,2013-03-11 07:29:00,
2013-03-11 03:30:00,62.1,52.6,30.36,North,0,0.0,0.0,71,0.00,,,0.00,VWS V14.01,2013-03-11 07:30:00,
2013-03-11 03:31:00,62.1,52.6,30.36,North,0,0.0,0.0,71,0.00,,,0.00,VWS V14.01,2013-03-11 07:31:00,
2013-03-11 03:36:00,61.9,52.4,30.36,North,0,0.0,0.0,71,0.00,,,0.00,VWS V14.01,2013-03-11 07:36:00,
2013-03-11 03:39:00,61.9,52.4,30.36,North,0,0.0,0.0,71,0.00,,,0.00,VWS V14.01,2013-03-11 07:39:00,
2013-03-11 03:40:00,61.9,52.4,30.36,North,0,0.0,0.0,71,0.00,,,0.00,VWS V14.01,2013-03-11 07:40:00,
2013-03-11 03:41:00,61.9,52.4,30.36,North,0,0.0,0.0,71,0.00,,,0.00,VWS V14.01,2013-03-11 07:41:00,
2013-03-11 03:42:00,61.9,52.4,30.36,North,0,0.0,0.0,71,0.00,,,0.00,VWS V14.01,2013-03-11 07:42:00,
2013-03-11 03:45:00,61.9,52.4,30.36,North,0,0.0,0.0,71,0.00,,,0.00,VWS V14.01,2013-03-11 07:45:00,
2013-03-11 03:48:00,61.9,52.4,30.36,North,0,0.0,0.0,71,0.00,,,0.00,VWS V14.01,2013-03-11 07:48:00,
2013-03-11 03:49:00,61.9,52.4,30.36,North,0,0.0,0.0,71,0.00,,,0.00,VWS V14.01,2013-03-11 07:49:00,
2013-03-11 03:53:00,61.7,52.2,30.36,North,0,0.0,0.0,71,0.00,,,0.00,VWS V14.01,2013-03-11 07:53:00,
2013-03-11 03:55:00,61.7,52.2,30.36,North,0,0.0,0.0,71,0.00,,,0.00,VWS V14.01,2013-03-11 07:55:00,
2013-03-11 03:59:00,61.7,52.2,30.36,North,0,0.0,0.0,71,0.00,,,0.00,VWS V14.01,2013-03-11 07:59:00,
2013-03-11 04:00:00,61.7,52.2,30.36,North,0,0.0,0.0,71,0.00,,,0.00,VWS V14.01,2013-03-11 08:00:00,
2013-03-11 04:01:00,61.7,52.2,30.36,North,0,0.0,0.0,71,0.00,,,0.00,VWS V14.01,2013-03-11 08:01:00,
2013-03-11 04:05:00,61.7,52.2,30.36,North,0,0.0,0.0,71,0.00,,,0.00,VWS V14.01,2013-03-11 08:05:00,
2013-03-11 04:06:00,61.7,52.2,30.36,North,0,0.0,0.0,71,0.00,,,0.00,VWS V14.01,2013-03-11 08:06:00,
2013-03-11 04:09:00,61.5,52.0,30.36,North,0,0.0,0.0,71,0.00,,,0.00,VWS V14.01,2013-03-11 08:09:00,
2013-03-11 04:11:00,61.5,52.0,30.36,North,0,0.0,0.0,71,0.00,,,0.00,VWS V14.01,2013-03-11 08:11:00,
2013-03-11 04:12:00,61.5,52.0,30.36,North,0,0.0,0.0,71,0.00,,,0.00,VWS V14.01,2013-03-11 08:12:00,
2013-03-11 04:16:00,61.5,52.4,30.36,North,0,0.0,0.0,72,0.00,,,0.00,VWS V14.01,2013-03-11 08:16:00,
2013-03-11 04:18:00,61.3,52.2,30.36,North,0,0.0,0.0,72,0.00,,,0.00,VWS V14.01,2013-03-11 08:18:00,
2013-03-11 04:19:00,61.3,52.2,30.36,North,0,0.0,0.0,72,0.00,,,0.00,VWS V14.01,2013-03-11 08:19:00,
2013-03-11 04:23:00,61.3,52.2,30.36,North,0,0.0,0.0,72,0.00,,,0.00,VWS V14.01,2013-03-11 08:23:00,
2013-03-11 04:24:00,61.3,52.2,30.36,North,0,0.0,0.0,72,0.00,,,0.00,VWS V14.01,2013-03-11 08:24:00,
2013-03-11 04:26:00,61.3,52.2,30.36,North,0,0.0,0.0,72,0.00,,,0.00,VWS V14.01,2013-03-11 08:26:00,
2013-03-11 04:29:00,61.3,52.2,30.36,North,0,0.0,0.0,72,0.00,,,0.00,VWS V14.01,2013-03-11 08:29:00,
2013-03-11 04:30:00,61.3,52.2,30.36,North,0,0.0,0.0,72,0.00,,,0.00,VWS V14.01,2013-03-11 08:30:00,
2013-03-11 04:31:00,61.3,52.2,30.36,North,0,0.0,0.0,72,0.00,,,0.00,VWS V14.01,2013-03-11 08:31:00,
2013-03-11 04:33:00,61.3,52.2,30.36,North,0,0.0,0.0,72,0.00,,,0.00,VWS V14.01,2013-03-11 08:33:00,
2013-03-11 04:36:00,61.3,52.2,30.36,North,0,0.0,0.0,72,0.00,,,0.00,VWS V14.01,2013-03-11 08:36:00,
2013-03-11 04:39:00,61.3,52.6,30.36,North,0,0.0,0.0,73,0.00,,,0.00,VWS V14.01,2013-03-11 08:39:00,
2013-03-11 04:41:00,61.3,52.6,30.36,North,0,0.0,0.0,73,0.00,,,0.00,VWS V14.01,2013-03-11 08:41:00,
2013-03-11 04:42:00,61.3,52.6,30.36,North,0,0.0,0.0,73,0.00,,,0.00,VWS V14.01,2013-03-11 08:42:00,
2013-03-11 04:43:00,61.3,52.6,30.36,North,0,0.0,0.0,73,0.00,,,0.00,VWS V14.01,2013-03-11 08:43:00,
2013-03-11 04:47:00,61.3,52.6,30.36,North,0,0.0,0.0,73,0.00,,,0.00,VWS V14.01,2013-03-11 08:47:00,
2013-03-11 04:49:00,61.3,52.6,30.36,North,0,0.0,0.0,73,0.00,,,0.00,VWS V14.01,2013-03-11 08:49:00,
2013-03-11 04:50:00,61.3,52.6,30.36,North,0,0.0,0.0,73,0.00,,,0.00,VWS V14.01,2013-03-11 08:50:00,
2013-03-11 04:54:00,61.3,52.6,30.36,North,0,0.0,0.0,73,0.00,,,0.00,VWS V14.01,2013-03-11 08:54:00,
2013-03-11 04:56:00,61.3,53.0,30.36,North,0,0.0,0.0,74,0.00,,,0.00,VWS V14.01,2013-03-11 08:56:00,
2013-03-11 04:57:00,61.3,53.0,30.36,North,0,0.0,0.0,74,0.00,,,0.00,VWS V14.01,2013-03-11 08:57:00,
2013-03-11 04:58:00,61.3,53.0,30.33,North,0,0.0,0.0,74,0.00,,,0.00,VWS V14.01,2013-03-11 08:58:00,
2013-03-11 04:59:00,61.3,53.0,30.33,North,0,0.0,0.0,74,0.00,,,0.00,VWS V14.01,2013-03-11 08:59:00,
2013-03-11 05:02:00,61.3,53.0,30.33,North,0,0.0,0.0,74,0.00,,,0.00,VWS V14.01,2013-03-11 09:02:00,
2013-03-11 05:05:00,61.3,53.0,30.33,North,0,0.0,0.0,74,0.00,,,0.00,VWS V14.01,2013-03-11 09:05:00,
2013-03-11 05:06:00,61.3,53.0,30.33,North,0,0.0,0.0,74,0.00,,,0.00,VWS V14.01,2013-03-11 09:06:00,
2013-03-11 05:10:00,61.3,53.0,30.33,North,0,0.0,0.0,74,0.00,,,0.00,VWS V14.01,2013-03-11 09:10:00,
2013-03-11 05:12:00,61.3,53.0,30.33,North,0,0.0,0.0,74,0.00,,,0.00,VWS V14.01,2013-03-11 09:12:00,
2013-03-11 05:14:00,61.2,52.8,30.33,North,0,0.0,0.0,74,0.00,,,0.00,VWS V14.01,2013-03-11 09:14:00,
2013-03-11 05:16:00,61.2,52.8,30.33,North,0,0.0,0.0,74,0.00,,,0.00,VWS V14.01,2013-03-11 09:16:00,
2013-03-11 05:19:00,61.2,52.8,30.33,North,0,0.0,0.0,74,0.00,,,0.00,VWS V14.01,2013-03-11 09:19:00,
2013-03-11 05:22:00,61.2,52.8,30.33,North,0,0.0,0.0,74,0.00,,,0.00,VWS V14.01,2013-03-11 09:22:00,
2013-03-11 05:23:00,61.2,52.8,30.33,North,0,0.0,0.0,74,0.00,,,0.00,VWS V14.01,2013-03-11 09:23:00,
2013-03-11 05:24:00,61.2,52.8,30.33,North,0,0.0,0.0,74,0.00,,,0.00,VWS V14.01,2013-03-11 09:24:00,
2013-03-11 05:25:00,61.2,52.8,30.33,North,0,0.0,0.0,74,0.00,,,0.00,VWS V14.01,2013-03-11 09:25:00,
2013-03-11 05:30:00,61.2,52.8,30.33,North,0,0.0,0.0,74,0.00,,,0.00,VWS V14.01,2013-03-11 09:30:00,
2013-03-11 05:31:00,61.2,52.8,30.33,North,0,0.0,0.0,74,0.00,,,0.00,VWS V14.01,2013-03-11 09:31:00,
2013-03-11 05:32:00,61.0,52.7,30.33,North,0,0.0,0.0,74,0.00,,,0.00,VWS V14.01,2013-03-11 09:32:00,
2013-03-11 05:34:00,61.0,52.7,30.33,North,0,0.0,0.0,74,0.00,,,0.00,VWS V14.01,2013-03-11 09:34:00,
2013-03-11 05:35:00,61.0,52.7,30.33,North,0,0.0,0.0,74,0.00,,,0.00,VWS V14.01,2013-03-11 09:35:00,
2013-03-11 05:36:00,61.0,52.7,30.33,North,0,0.0,0.0,74,0.00,,,0.00,VWS V14.01,2013-03-11 09:36:00,
2013-03-11 05:40:00,61.0,52.7,30.33,North,0,0.0,0.0,74,0.00,,,0.00,VWS V14.01,2013-03-11 09:40:00,
2013-03-11 05:41:00,61.0,52.7,30.33,North,0,0.0,0.0,74,0.00,,,0.00,VWS V14.01,2013-03-11 09:41:00,
2013-03-11 05:43:00,61.0,52.7,30.33,North,0,0.0,0.0,74,0.00,,CLR,0.00,VWS V14.01,2013-03-11 09:43:00,
2013-03-11 05:47:00,61.0,53.0,30.33,North,0,0.0,0.0,75,0.00,,CLR,0.00,VWS V14.01,2013-03-11 09:47:00,
2013-03-11 05:48:00,61.0,53.0,30.33,North,0,0.0,0.0,75,0.00,,CLR,0.00,VWS V14.01,2013-03-11 09:48:00,
2013-03-11 05:53:00,61.0,53.0,30.33,North,0,0.0,0.0,75,0.00,,CLR,0.00,VWS V14.01,2013-03-11 09:53:00,
2013-03-11 05:57:00,61.0,53.0,30.33,North,0,0.0,0.0,75,0.00,,CLR,0.00,VWS V14.01,2013-03-11 09:57:00,
2013-03-11 05:58:00,61.0,53.4,30.33,North,0,0.0,0.0,76,0.00,,CLR,0.00,VWS V14.01,2013-03-11 09:58:00,
2013-03-11 05:59:00,61.0,53.4,30.33,North,0,0.0,0.0,76,0.00,,CLR,0.00,VWS V14.01,2013-03-11 09:59:00,
2013-03-11 06:04:00,61.0,53.4,30.33,North,0,0.0,0.0,76,0.00,,CLR,0.00,VWS V14.01,2013-03-11 10:04:00,
2013-03-11 06:05:00,61.0,53.4,30.33,North,0,0.0,0.0,76,0.00,,CLR,0.00,VWS V14.01,2013-03-11 10:05:00,
2013-03-11 06:10:00,61.0,53.4,30.33,North,0,0.0,0.0,76,0.00,,CLR,0.00,VWS V14.01,2013-03-11 10:10:00,
2013-03-11 06:11:00,61.0,53.4,30.33,North,0,0.0,0.0,76,0.00,,CLR,0.00,VWS V14.01,2013-03-11 10:11:00,
2013-03-11 06:14:00,61.0,53.4,30.33,North,0,0.0,0.0,76,0.00,,CLR,0.00,VWS V14.01,2013-03-11 10:14:00,
2013-03-11 06:17:00,61.0,53.4,30.33,North,0,0.0,0.0,76,0.00,,CLR,0.00,VWS V14.01,2013-03-11 10:17:00,
2013-03-11 06:18:00,61.0,53.4,30.33,North,0,0.0,0.0,76,0.00,,CLR,0.00,VWS V14.01,2013-03-11 10:18:00,
2013-03-11 06:19:00,61.0,53.4,30.33,North,0,0.0,0.0,76,0.00,,CLR,0.00,VWS V14.01,2013-03-11 10:19:00,
2013-03-11 06:22:00,61.0,53.7,30.33,North,0,0.0,0.0,77,0.00,,CLR,0.00,VWS V14.01,2013-03-11 10:22:00,
2013-03-11 06:24:00,61.0,53.7,30.33,North,0,0.0,0.0,77,0.00,,CLR,0.00,VWS V14.01,2013-03-11 10:24:00,
2013-03-11 06:28:00,61.0,53.7,30.33,North,0,0.0,0.0,77,0.00,,CLR,0.00,VWS V14.01,2013-03-11 10:28:00,
2013-03-11 06:32:00,60.8,53.5,30.33,North,0,0.0,0.0,77,0.00,,CLR,0.00,VWS V14.01,2013-03-11 10:32:00,
2013-03-11 06:35:00,60.8,53.5,30.33,North,0,0.0,0.0,77,0.00,,CLR,0.00,VWS V14.01,2013-03-11 10:35:00,
2013-03-11 06:40:00,60.8,53.5,30.33,North,0,0.0,0.0,77,0.00,,CLR,0.00,VWS V14.01,2013-03-11 10:40:00,
2013-03-11 06:44:00,60.8,53.5,30.33,North,0,0.0,0.0,77,0.00,,CLR,0.00,VWS V14.01,2013-03-11 10:44:00,
2013-03-11 06:45:00,60.8,53.5,30.33,North,0,0.0,0.0,77,0.00,,CLR,0.00,VWS V14.01,2013-03-11 10:45:00,
2013-03-11 06:48:00,60.8,53.5,30.33,North,0,0.0,0.0,77,0.00,,CLR,0.00,VWS V14.01,2013-03-11 10:48:00,
2013-03-11 06:50:00,60.8,53.9,30.33,North,0,0.0,0.0,78,0.00,,CLR,0.00,VWS V14.01,2013-03-11 10:50:00,
2013-03-11 06:52:00,60.8,53.9,30.33,North,0,0.0,0.0,78,0.00,,CLR,0.00,VWS V14.01,2013-03-11 10:52:00,
2013-03-11 06:55:00,60.8,53.9,30.33,North,0,0.0,0.0,78,0.00,,CLR,0.00,VWS V14.01,2013-03-11 10:55:00,
2013-03-11 06:57:00,60.8,53.9,30.33,North,0,0.0,0.0,78,0.00,,CLR,0.00,VWS V14.01,2013-03-11 10:57:00,
2013-03-11 07:00:00,60.6,53.7,30.33,North,0,0.0,0.0,78,0.00,,CLR,0.00,VWS V14.01,2013-03-11 11:00:00,
2013-03-11 07:03:00,60.6,53.7,30.33,North,0,0.0,0.0,78,0.00,,CLR,0.00,VWS V14.01,2013-03-11 11:03:00,
2013-03-11 07:05:00,60.6,53.7,30.33,North,0,0.0,0.0,78,0.00,,CLR,0.00,VWS V14.01,2013-03-11 11:05:00,
2013-03-11 07:06:00,60.6,53.7,30.33,North,0,0.0,0.0,78,0.00,,CLR,0.00,VWS V14.01,2013-03-11 11:06:00,
2013-03-11 07:07:00,60.6,53.7,30.33,North,0,0.0,0.0,78,0.00,,CLR,0.00,VWS V14.01,2013-03-11 11:07:00,
2013-03-11 07:11:00,60.6,53.7,30.33,North,0,0.0,0.0,78,0.00,,CLR,0.00,VWS V14.01,2013-03-11 11:11:00,
2013-03-11 07:12:00,60.6,53.7,30.33,North,0,0.0,0.0,78,0.00,,CLR,0.00,VWS V14.01,2013-03-11 11:12:00,
2013-03-11 07:17:00,60.6,53.7,30.36,North,0,0.0,0.0,78,0.00,,CLR,0.00,VWS V14.01,2013-03-11 11:17:00,
2013-03-11 07:20:00,60.6,53.7,30.36,North,0,0.0,0.0,78,0.00,,CLR,0.00,VWS V14.01,2013-03-11 11:20:00,
2013-03-11 07:22:00,60.6,53.7,30.36,North,0,0.0,0.0,78,0.00,,CLR,0.00,VWS V14.01,2013-03-11 11:22:00,
2013-03-11 07:23:00,60.6,53.7,30.36,North,0,0.0,0.0,78,0.00,,CLR,0.00,VWS V14.01,2013-03-11 11:23:00,
2013-03-11 07:26:00,60.6,53.7,30.36,North,0,0.0,0.0,78,0.00,,CLR,0.00,VWS V14.01,2013-03-11 11:26:00,
2013-03-11 07:28:00,60.6,53.7,30.36,North,0,0.0,0.0,78,0.00,,CLR,0.00,VWS V14.01,2013-03-11 11:28:00,
2013-03-11 07:31:00,60.4,53.6,30.36,North,0,0.0,0.0,78,0.00,,CLR,0.00,VWS V14.01,2013-03-11 11:31:00,
2013-03-11 07:32:00,60.4,53.6,30.36,North,0,0.0,0.0,78,0.00,,CLR,0.00,VWS V14.01,2013-03-11 11:32:00,
2013-03-11 07:33:00,60.4,53.6,30.36,North,0,0.0,0.0,78,0.00,,CLR,0.00,VWS V14.01,2013-03-11 11:33:00,
2013-03-11 07:37:00,60.4,53.2,30.36,North,0,0.0,0.0,77,0.00,,CLR,0.00,VWS V14.01,2013-03-11 11:37:00,
2013-03-11 07:38:00,60.4,53.2,30.36,North,0,0.0,0.0,77,0.00,,CLR,0.00,VWS V14.01,2013-03-11 11:38:00,
2013-03-11 07:39:00,60.4,53.2,30.36,North,0,0.0,0.0,77,0.00,,CLR,0.00,VWS V14.01,2013-03-11 11:39:00,
2013-03-11 07:42:00,60.3,53.0,30.36,North,0,0.0,0.0,77,0.00,,CLR,0.00,VWS V14.01,2013-03-11 11:42:00,
2013-03-11 07:43:00,60.3,53.0,30.36,North,0,0.0,0.0,77,0.00,,CLR,0.00,VWS V14.01,2013-03-11 11:43:00,
2013-03-11 07:46:00,60.3,53.0,30.36,North,0,0.0,0.0,77,0.00,,CLR,0.00,VWS V14.01,2013-03-11 11:46:00,
2013-03-11 07:51:00,60.1,52.9,30.36,North,0,0.0,0.0,77,0.00,,CLR,0.00,VWS V14.01,2013-03-11 11:51:00,
2013-03-11 07:53:00,60.1,52.9,30.36,North,0,0.0,0.0,77,0.00,,CLR,0.00,VWS V14.01,2013-03-11 11:53:00,
2013-03-11 07:55:00,60.1,52.9,30.36,North,0,0.0,0.0,77,0.00,,CLR,0.00,VWS V14.01,2013-03-11 11:55:00,
2013-03-11 07:57:00,60.1,52.9,30.36,North,0,0.0,0.0,77,0.00,,CLR,0.00,VWS V14.01,2013-03-11 11:57:00,
2013-03-11 07:58:00,60.1,52.9,30.36,North,0,0.0,0.0,77,0.00,,CLR,0.00,VWS V14.01,2013-03-11 11:58:00,
2013-03-11 08:02:00,60.1,52.9,30.36,North,0,0.0,0.0,77,0.00,,CLR,0.00,VWS V14.01,2013-03-11 12:02:00,
2013-03-11 08:03:00,60.1,52.9,30.36,North,0,0.0,0.0,77,0.00,,CLR,0.00,VWS V14.01,2013-03-11 12:03:00,
2013-03-11 08:04:00,60.1,52.9,30.36,North,0,0.0,0.0,77,0.00,,CLR,0.00,VWS V14.01,2013-03-11 12:04:00,
2013-03-11 08:07:00,60.3,53.0,30.36,North,0,0.0,0.0,77,0.00,,CLR,0.00,VWS V14.01,2013-03-11 12:07:00,
2013-03-11 08:08:00,60.3,53.0,30.36,North,0,0.0,0.0,77,0.00,,CLR,0.00,VWS V14.01,2013-03-11 12:08:00,
2013-03-11 08:09:00,60.3,53.0,30.36,North,0,0.0,0.0,77,0.00,,CLR,0.00,VWS V14.01,2013-03-11 12:09:00,
2013-03-11 08:14:00,60.4,53.6,30.36,North,0,0.0,0.0,78,0.00,,CLR,0.00,VWS V14.01,2013-03-11 12:14:00,
2013-03-11 08:16:00,60.4,53.6,30.36,North,0,0.0,0.0,78,0.00,,CLR,0.00,VWS V14.01,2013-03-11 12:16:00,
2013-03-11 08:19:00,60.4,53.6,30.36,North,0,0.0,0.0,78,0.00,,CLR,0.00,VWS V14.01,2013-03-11 12:19:00,
2013-03-11 08:22:00,60.6,54.1,30.36,North,0,0.0,0.0,79,0.00,,CLR,0.00,VWS V14.01,2013-03-11 12:22:00,
2013-03-11 08:24:00,60.6,54.1,30.36,North,0,0.0,0.0,79,0.00,,CLR,0.00,VWS V14.01,2013-03-11 12:24:00,
2013-03-11 08:27:00,60.8,54.3,30.36,North,0,0.0,0.0,79,0.00,,CLR,0.00,VWS V14.01,2013-03-11 12:27:00,
2013-03-11 08:28:00,61.0,54.4,30.36,North,0,0.0,0.0,79,0.00,,CLR,0.00,VWS V14.01,2013-03-11 12:28:00,
2013-03-11 08:30:00,61.0,54.4,30.36,North,0,0.0,0.0,79,0.00,,CLR,0.00,VWS V14.01,2013-03-11 12:30:00,
2013-03-11 08:33:00,61.0,54.4,30.36,North,0,0.0,0.0,79,0.00,,CLR,0.00,VWS V14.01,2013-03-11 12:33:00,
2013-03-11 08:35:00,61.2,54.6,30.36,North,0,0.0,0.0,79,0.00,,CLR,0.00,VWS V14.01,2013-03-11 12:35:00,
2013-03-11 08:37:00,61.3,54.8,30.36,North,0,0.0,0.0,79,0.00,,CLR,0.00,VWS V14.01,2013-03-11 12:37:00,
2013-03-11 08:38:00,61.3,54.8,30.36,North,0,0.0,0.0,79,0.00,,CLR,0.00,VWS V14.01,2013-03-11 12:38:00,
2013-03-11 08:43:00,61.5,55.0,30.36,North,0,0.0,0.0,79,0.00,,CLR,0.00,VWS V14.01,2013-03-11 12:43:00,
2013-03-11 08:44:00,61.5,55.0,30.36,North,0,0.0,0.0,79,0.00,,CLR,0.00,VWS V14.01,2013-03-11 12:44:00,
2013-03-11 08:48:00,61.7,55.1,30.36,North,0,0.0,0.0,79,0.00,,CLR,0.00,VWS V14.01,2013-03-11 12:48:00,
2013-03-11 08:50:00,61.9,55.3,30.36,North,0,0.0,0.0,79,0.00,,CLR,0.00,VWS V14.01,2013-03-11 12:50:00,
2013-03-11 08:51:00,61.9,55.7,30.36,North,0,0.0,0.0,80,0.00,,CLR,0.00,VWS V14.01,2013-03-11 12:51:00,
2013-03-11 08:55:00,62.1,55.8,30.36,North,0,0.0,0.0,80,0.00,,CLR,0.00,VWS V14.01,2013-03-11 12:55:00,
2013-03-11 08:56:00,62.1,55.8,30.36,North,0,0.0,0.0,80,0.00,,CLR,0.00,VWS V14.01,2013-03-11 12:56:00,
2013-03-11 09:01:00,62.4,56.2,30.36,North,0,0.0,0.0,80,0.00,,CLR,0.00,VWS V14.01,2013-03-11 13:01:00,
2013-03-11 09:06:00,62.8,56.2,30.36,North,0,0.0,0.0,79,0.00,,CLR,0.00,VWS V14.01,2013-03-11 13:06:00,
2013-03-11 09:07:00,62.8,56.2,30.36,North,0,0.0,0.0,79,0.00,,CLR,0.00,VWS V14.01,2013-03-11 13:07:00,
2013-03-11 09:08:00,63.0,56.3,30.36,North,0,0.0,0.0,79,0.00,,CLR,0.00,VWS V14.01,2013-03-11 13:08:00,
2013-03-11 09:12:00,63.1,56.5,30.36,North,0,0.0,0.0,79,0.00,,CLR,0.00,VWS V14.01,2013-03-11 13:12:00,
2013-03-11 09:13:00,63.3,56.7,30.36,North,0,0.0,0.0,79,0.00,,CLR,0.00,VWS V14.01,2013-03-11 13:13:00,
2013-03-11 09:17:00,63.7,57.0,30.36,North,0,0.0,0.0,79,0.00,,CLR,0.00,VWS V14.01,2013-03-11 13:17:00,
2013-03-11 09:19:00,63.9,57.2,30.36,North,0,0.0,0.0,79,0.00,,CLR,0.00,VWS V14.01,2013-03-11 13:19:00,
2013-03-11 09:21:00,64.0,57.4,30.36,North,0,0.0,0.0,79,0.00,,CLR,0.00,VWS V14.01,2013-03-11 13:21:00,
2013-03-11 09:22:00,64.0,57.4,30.36,North,0,0.0,0.0,79,0.00,,CLR,0.00,VWS V14.01,2013-03-11 13:22:00,
2013-03-11 09:25:00,64.2,57.6,30.36,North,0,0.0,0.0,79,0.00,,CLR,0.00,VWS V14.01,2013-03-11 13:25:00,
2013-03-11 09:27:00,64.6,57.9,30.36,North,0,0.0,0.0,79,0.00,,CLR,0.00,VWS V14.01,2013-03-11 13:27:00,
2013-03-11 09:30:00,64.9,58.3,30.36,North,0,0.0,0.0,79,0.00,,CLR,0.00,VWS V14.01,2013-03-11 13:30:00,
2013-03-11 09:31:00,65.1,58.5,30.36,North,0,0.0,0.0,79,0.00,,CLR,0.00,VWS V14.01,2013-03-11 13:31:00,
2013-03-11 09:32:00,65.1,58.1,30.36,North,0,0.0,0.0,78,0.00,,CLR,0.00,VWS V14.01,2013-03-11 13:32:00,
2013-03-11 09:35:00,65.7,58.6,30.36,North,0,0.0,0.0,78,0.00,,CLR,0.00,VWS V14.01,2013-03-11 13:35:00,
2013-03-11 09:36:00,65.7,58.6,30.36,North,0,0.0,0.0,78,0.00,,CLR,0.00,VWS V14.01,2013-03-11 13:36:00,
2013-03-11 09:39:00,66.0,58.6,30.36,North,0,0.0,0.0,77,0.00,,CLR,0.00,VWS V14.01,2013-03-11 13:39:00,
2013-03-11 09:41:00,66.2,58.4,30.36,North,0,0.0,0.0,76,0.00,,CLR,0.00,VWS V14.01,2013-03-11 13:41:00,
2013-03-11 09:42:00,66.4,58.6,30.36,North,0,0.0,0.0,76,0.00,,CLR,0.00,VWS V14.01,2013-03-11 13:42:00,
2013-03-11 09:44:00,66.6,58.8,30.36,North,0,0.0,0.0,76,0.00,,CLR,0.00,VWS V14.01,2013-03-11 13:44:00,
2013-03-11 09:46:00,66.9,58.8,30.36,North,0,0.0,0.0,75,0.00,,CLR,0.00,VWS V14.01,2013-03-11 13:46:00,
2013-03-11 09:49:00,67.1,58.5,30.36,North,0,0.0,0.0,74,0.00,,CLR,0.00,VWS V14.01,2013-03-11 13:49:00,
2013-03-11 09:53:00,67.6,58.3,30.36,North,0,0.0,0.0,72,0.00,,CLR,0.00,VWS V14.01,2013-03-11 13:53:00,
2013-03-11 09:57:00,68.0,58.3,30.36,North,0,0.0,0.0,71,0.00,,CLR,0.00,VWS V14.01,2013-03-11 13:57:00,
2013-03-11 09:58:00,68.2,58.0,30.36,North,0,0.0,0.0,70,0.00,,CLR,0.00,VWS V14.01,2013-03-11 13:58:00,
2013-03-11 10:00:00,68.4,58.2,30.36,North,0,0.0,0.0,70,0.00,,CLR,0.00,VWS V14.01,2013-03-11 14:00:00,
2013-03-11 10:01:00,68.5,58.4,30.36,North,0,0.0,0.0,70,0.00,,CLR,0.00,VWS V14.01,2013-03-11 14:01:00,
2013-03-11 10:03:00,68.7,58.2,30.36,North,0,0.0,0.0,69,0.00,,CLR,0.00,VWS V14.01,2013-03-11 14:03:00,
2013-03-11 10:04:00,68.9,58.3,30.36,North,0,0.0,0.0,69,0.00,,CLR,0.00,VWS V14.01,2013-03-11 14:04:00,
2013-03-11 10:08:00,69.1,57.7,30.36,North,0,0.0,0.0,67,0.00,,CLR,0.00,VWS V14.01,2013-03-11 14:08:00,
2013-03-11 10:09:00,69.3,57.4,30.36,North,0,0.0,0.0,66,0.00,,CLR,0.00,VWS V14.01,2013-03-11 14:09:00,
2013-03-11 10:14:00,69.8,57.1,30.36,North,0,0.0,0.0,64,0.00,,CLR,0.00,VWS V14.01,2013-03-11 14:14:00,
2013-03-11 10:17:00,70.0,56.8,30.36,North,0,0.0,0.0,63,0.00,,CLR,0.00,VWS V14.01,2013-03-11 14:17:00,
2013-03-11 10:19:00,70.2,56.5,30.36,North,0,0.0,0.0,62,0.00,,CLR,0.00,VWS V14.01,2013-03-11 14:19:00,
2013-03-11 10:23:00,70.5,56.0,30.36,North,0,0.0,0.0,60,0.00,,CLR,0.00,VWS V14.01,2013-03-11 14:23:00,
2013-03-11 10:24:00,70.5,56.0,30.36,North,0,0.0,0.0,60,0.00,,CLR,0.00,VWS V14.01,2013-03-11 14:24:00,
2013-03-11 10:25:00,70.7,55.7,30.36,North,0,0.0,0.0,59,0.00,,CLR,0.00,VWS V14.01,2013-03-11 14:25:00,
2013-03-11 10:28:00,70.9,55.8,30.36,North,0,0.0,0.0,59,0.00,,CLR,0.00,VWS V14.01,2013-03-11 14:28:00,
2013-03-11 10:30:00,71.1,55.5,30.36,North,0,0.0,0.0,58,0.00,,CLR,0.00,VWS V14.01,2013-03-11 14:30:00,
2013-03-11 10:31:00,71.2,55.2,30.36,North,0,0.0,0.0,57,0.00,,CLR,0.00,VWS V14.01,2013-03-11 14:31:00,
2013-03-11 10:32:00,71.2,55.2,30.36,North,0,0.0,0.0,57,0.00,,CLR,0.00,VWS V14.01,2013-03-11 14:32:00,
2013-03-11 10:36:00,71.6,55.1,30.36,North,0,0.0,0.0,56,0.00,,CLR,0.00,VWS V14.01,2013-03-11 14:36:00,
2013-03-11 10:41:00,72.0,53.9,30.36,North,0,0.0,0.0,53,0.00,,CLR,0.00,VWS V14.01,2013-03-11 14:41:00,
2013-03-11 10:43:00,72.1,54.1,30.36,North,0,0.0,0.0,53,0.00,,CLR,0.00,VWS V14.01,2013-03-11 14:43:00,
2013-03-11 10:46:00,72.3,53.2,30.36,North,0,0.0,0.0,51,0.00,,CLR,0.00,VWS V14.01,2013-03-11 14:46:00,
2013-03-11 10:48:00,72.5,52.8,30.36,North,0,0.0,0.0,50,0.00,,CLR,0.00,VWS V14.01,2013-03-11 14:48:00,
2013-03-11 10:49:00,72.7,53.0,30.36,North,0,0.0,0.0,50,0.00,,CLR,0.00,VWS V14.01,2013-03-11 14:49:00,
2013-03-11 10:51:00,72.7,53.0,30.36,North,0,0.0,0.0,50,0.00,,CLR,0.00,VWS V14.01,2013-03-11 14:51:00,
2013-03-11 10:56:00,73.0,52.8,30.36,North,0,0.0,0.0,49,0.00,,CLR,0.00,VWS V14.01,2013-03-11 14:56:00,
2013-03-11 10:57:00,73.0,52.8,30.36,North,0,0.0,0.0,49,0.00,,CLR,0.00,VWS V14.01,2013-03-11 14:57:00,
2013-03-11 11:00:00,73.4,52.5,30.36,North,0,0.0,0.0,48,0.00,,CLR,0.00,VWS V14.01,2013-03-11 15:00:00,
2013-03-11 11:01:00,73.4,52.0,30.36,North,0,0.0,0.0,47,0.00,,CLR,0.00,VWS V14.01,2013-03-11 15:01:00,
2013-03-11 11:06:00,73.8,52.3,30.36,North,0,0.0,0.0,47,0.00,,CLR,0.00,VWS V14.01,2013-03-11 15:06:00,
2013-03-11 11:07:00,73.9,51.9,30.36,North,0,0.0,0.0,46,0.00,,CLR,0.00,VWS V14.01,2013-03-11 15:07:00,
2013-03-11 11:08:00,73.9,51.9,30.36,North,0,0.0,0.0,46,0.00,,CLR,0.00,VWS V14.01,2013-03-11 15:08:00,
2013-03-11 11:11:00,74.1,52.0,30.36,North,0,0.0,0.0,46,0.00,,CLR,0.00,VWS V14.01,2013-03-11 15:11:00,
2013-03-11 11:14:00,74.3,51.6,30.36,North,0,0.0,0.0,45,0.00,,CLR,0.00,VWS V14.01,2013-03-11 15:14:00,
2013-03-11 11:16:00,74.3,51.6,30.36,North,0,0.0,0.0,45,0.00,,CLR,0.00,VWS V14.01,2013-03-11 15:16:00,
2013-03-11 11:17:00,74.5,51.8,30.36,North,0,0.0,0.0,45,0.00,,CLR,0.00,VWS V14.01,2013-03-11 15:17:00,
2013-03-11 11:21:00,74.7,51.9,30.36,North,0,0.0,0.0,45,0.00,,CLR,0.00,VWS V14.01,2013-03-11 15:21:00,
2013-03-11 11:23:00,74.7,51.3,30.36,North,0,0.0,0.0,44,0.00,,CLR,0.00,VWS V14.01,2013-03-11 15:23:00,
2013-03-11 11:27:00,74.8,51.5,30.36,North,0,0.0,0.0,44,0.00,,CLR,0.00,VWS V14.01,2013-03-11 15:27:00,
2013-03-11 11:28:00,74.8,51.5,30.36,North,0,0.0,0.0,44,0.00,,CLR,0.00,VWS V14.01,2013-03-11 15:28:00,
2013-03-11 11:32:00,75.0,51.7,30.36,North,0,0.0,0.0,44,0.00,,CLR,0.00,VWS V14.01,2013-03-11 15:32:00,
2013-03-11 11:34:00,75.0,51.7,30.36,North,0,0.0,0.0,44,0.00,,CLR,0.00,VWS V14.01,2013-03-11 15:34:00,
2013-03-11 11:37:00,75.0,51.0,30.36,North,0,0.0,0.0,43,0.00,,CLR,0.00,VWS V14.01,2013-03-11 15:37:00,
2013-03-11 11:39:00,75.0,51.7,30.36,North,0,0.0,0.0,44,0.00,,CLR,0.00,VWS V14.01,2013-03-11 15:39:00,
2013-03-11 11:41:00,75.0,51.7,30.36,North,0,0.0,0.0,44,0.00,,CLR,0.00,VWS V14.01,2013-03-11 15:41:00,
2013-03-11 11:46:00,75.2,51.2,30.36,North,0,0.0,0.0,43,0.00,,CLR,0.00,VWS V14.01,2013-03-11 15:46:00,
2013-03-11 11:47:00,75.4,51.3,30.36,North,0,0.0,0.0,43,0.00,,CLR,0.00,VWS V14.01,2013-03-11 15:47:00,
2013-03-11 11:48:00,75.4,51.3,30.36,North,0,0.0,0.0,43,0.00,,CLR,0.00,VWS V14.01,2013-03-11 15:48:00,
2013-03-11 11:49:00,75.4,51.3,30.36,North,0,0.0,0.0,43,0.00,,CLR,0.00,VWS V14.01,2013-03-11 15:49:00,
2013-03-11 11:51:00,75.6,51.5,30.36,North,0,0.0,0.0,43,0.00,,CLR,0.00,VWS V14.01,2013-03-11 15:51:00,
2013-03-11 11:55:00,76.1,50.7,30.36,North,0,0.0,0.0,41,0.00,,CLR,0.00,VWS V14.01,2013-03-11 15:55:00,
2013-03-11 11:58:00,76.3,50.9,30.36,North,0,0.0,0.0,41,0.00,,CLR,0.00,VWS V14.01,2013-03-11 15:58:00,
2013-03-11 11:59:00,76.3,50.9,30.36,North,0,0.0,0.0,41,0.00,,CLR,0.00,VWS V14.01,2013-03-11 15:59:00,
2013-03-11 12:00:00,76.5,51.0,30.36,North,0,0.0,0.0,41,0.00,,CLR,0.00,VWS V14.01,2013-03-11 16:00:00,
2013-03-11 12:03:00,76.6,51.2,30.36,North,0,0.0,0.0,41,0.00,,CLR,0.00,VWS V14.01,2013-03-11 16:03:00,
2013-03-11 12:05:00,76.8,50.7,30.36,North,0,0.0,0.0,40,0.00,,CLR,0.00,VWS V14.01,2013-03-11 16:05:00,
2013-03-11 12:08:00,76.8,50.0,30.36,North,0,0.0,0.0,39,0.00,,CLR,0.00,VWS V14.01,2013-03-11 16:08:00,
2013-03-11 12:09:00,77.0,49.5,30.36,North,0,0.0,0.0,38,0.00,,CLR,0.00,VWS V14.01,2013-03-11 16:09:00,
2013-03-11 12:10:00,77.0,49.5,30.36,North,0,0.0,0.0,38,0.00,,CLR,0.00,VWS V14.01,2013-03-11 16:10:00,
2013-03-11 12:14:00,77.0,49.5,30.36,North,0,0.0,0.0,38,0.00,,CLR,0.00,VWS V14.01,2013-03-11 16:14:00,
2013-03-11 12:17:00,77.0,50.2,30.36,North,0,0.0,0.0,39,0.00,,CLR,0.00,VWS V14.01,2013-03-11 16:17:00,
2013-03-11 12:19:00,77.2,50.3,30.36,North,0,0.0,0.0,39,0.00,,CLR,0.00,VWS V14.01,2013-03-11 16:19:00,
2013-03-11 12:22:00,77.2,51.0,30.36,North,0,0.0,0.0,40,0.00,,CLR,0.00,VWS V14.01,2013-03-11 16:22:00,
2013-03-11 12:24:00,77.2,51.0,30.36,North,0,0.0,0.0,40,0.00,,CLR,0.00,VWS V14.01,2013-03-11 16:24:00,
2013-03-11 12:29:00,77.4,50.5,30.36,North,0,0.0,0.0,39,0.00,,CLR,0.00,VWS V14.01,2013-03-11 16:29:00,
2013-03-11 12:31:00,77.4,49.8,30.36,North,0,0.0,0.0,38,0.00,,CLR,0.00,VWS V14.01,2013-03-11 16:31:00,
2013-03-11 12:36:00,77.7,50.1,30.36,North,0,0.0,0.0,38,0.00,,CLR,0.00,VWS V14.01,2013-03-11 16:36:00,
2013-03-11 12:39:00,77.9,49.6,30.36,North,0,0.0,0.0,37,0.00,,CLR,0.00,VWS V14.01,2013-03-11 16:39:00,
2013-03-11 12:41:00,77.9,49.6,30.36,North,0,0.0,0.0,37,0.00,,CLR,0.00,VWS V14.01,2013-03-11 16:41:00,
2013-03-11 12:44:00,78.1,49.0,30.36,North,0,0.0,0.0,36,0.00,,CLR,0.00,VWS V14.01,2013-03-11 16:44:00,
2013-03-11 12:47:00,78.3,49.1,30.36,North,0,0.0,0.0,36,0.00,,CLR,0.00,VWS V14.01,2013-03-11 16:47:00,
2013-03-11 12:51:00,78.4,50.0,30.36,North,0,0.0,0.0,37,0.00,,CLR,0.00,VWS V14.01,2013-03-11 16:51:00,
2013-03-11 12:52:00,78.4,49.3,30.36,North,0,0.0,0.0,36,0.00,,CLR,0.00,VWS V14.01,2013-03-11 16:52:00,
2013-03-11 12:53:00,78.4,49.3,30.36,North,0,0.0,0.0,36,0.00,,CLR,0.00,VWS V14.01,2013-03-11 16:53:00,
2013-03-11 12:57:00,78.6,48.7,30.36,North,0,0.0,0.0,35,0.00,,CLR,0.00,VWS V14.01,2013-03-11 16:57:00,
2013-03-11 12:59:00,78.6,49.5,30.36,North,0,0.0,0.0,36,0.00,,CLR,0.00,VWS V14.01,2013-03-11 16:59:00,
2013-03-11 13:02:00,78.8,48.9,30.36,North,0,0.0,0.0,35,0.00,,CLR,0.00,VWS V14.01,2013-03-11 17:02:00,
2013-03-11 13:07:00,79.0,49.0,30.36,North,0,0.0,0.0,35,0.00,,CLR,0.00,VWS V14.01,2013-03-11 17:07:00,
2013-03-11 13:08:00,79.0,49.0,30.36,North,0,0.0,0.0,35,0.00,,CLR,0.00,VWS V14.01,2013-03-11 17:08:00,
2013-03-11 13:09:00,79.0,48.2,30.36,North,0,0.0,0.0,34,0.00,,CLR,0.00,VWS V14.01,2013-03-11 17:09:00,
2013-03-11 13:13:00,79.2,48.4,30.36,North,0,0.0,0.0,34,0.00,,CLR,0.00,VWS V14.01,2013-03-11 17:13:00,
2013-03-11 13:14:00,79.2,48.4,30.36,North,0,0.0,0.0,34,0.00,,CLR,0.00,VWS V14.01,2013-03-11 17:14:00,
2013-03-11 13:18:00,79.5,49.5,30.36,North,0,0.0,0.0,35,0.00,,CLR,0.00,VWS V14.01,2013-03-11 17:18:00,
2013-03-11 13:19:00,79.7,49.7,30.36,North,0,0.0,0.0,35,0.00,,CLR,0.00,VWS V14.01,2013-03-11 17:19:00,
2013-03-11 13:20:00,79.7,48.9,30.36,North,0,0.0,0.0,34,0.00,,CLR,0.00,VWS V14.01,2013-03-11 17:20:00,
2013-03-11 13:22:00,79.9,49.0,30.36,North,0,0.0,0.0,34,0.00,,CLR,0.00,VWS V14.01,2013-03-11 17:22:00,
2013-03-11 13:25:00,79.9,48.2,30.36,North,0,0.0,0.0,33,0.00,,CLR,0.00,VWS V14.01,2013-03-11 17:25:00,
2013-03-11 13:29:00,79.5,47.9,30.36,North,0,0.0,0.0,33,0.00,,CLR,0.00,VWS V14.01,2013-03-11 17:29:00,
2013-03-11 13:30:00,79.3,47.8,30.36,North,0,0.0,0.0,33,0.00,,CLR,0.00,VWS V14.01,2013-03-11 17:30:00,
2013-03-11 13:34:00,79.0,48.2,30.36,North,0,0.0,0.0,34,0.00,,CLR,0.00,VWS V14.01,2013-03-11 17:34:00,
2013-03-11 13:35:00,79.0,48.2,30.36,North,0,0.0,0.0,34,0.00,,CLR,0.00,VWS V14.01,2013-03-11 17:35:00,
2013-03-11 13:39:00,78.6,47.9,30.36,North,0,0.0,0.0,34,0.00,,CLR,0.00,VWS V14.01,2013-03-11 17:39:00,
2013-03-11 13:41:00,78.4,48.5,30.36,North,0,0.0,0.0,35,0.00,,CLR,0.00,VWS V14.01,2013-03-11 17:41:00,
2013-03-11 13:43:00,78.4,48.5,30.36,North,0,0.0,0.0,35,0.00,,CLR,0.00,VWS V14.01,2013-03-11 17:43:00,
2013-03-11 13:44:00,78.4,48.5,30.36,North,0,0.0,0.0,35,0.00,,CLR,0.00,VWS V14.01,2013-03-11 17:44:00,
2013-03-11 13:45:00,78.4,48.5,30.36,North,0,0.0,0.0,35,0.00,,CLR,0.00,VWS V14.01,2013-03-11 17:45:00,
2013-03-11 13:48:00,78.6,48.7,30.36,North,0,0.0,0.0,35,0.00,,CLR,0.00,VWS V14.01,2013-03-11 17:48:00,
2013-03-11 13:49:00,78.8,48.9,30.36,North,0,0.0,0.0,35,0.00,,CLR,0.00,VWS V14.01,2013-03-11 17:49:00,
2013-03-11 13:50:00,78.8,48.9,30.36,North,0,0.0,0.0,35,0.00,,CLR,0.00,VWS V14.01,2013-03-11 17:50:00,
2013-03-11 13:53:00,79.2,49.2,30.36,North,0,0.0,0.0,35,0.00,,CLR,0.00,VWS V14.01,2013-03-11 17:53:00,
2013-03-11 13:54:00,79.2,48.4,30.36,North,0,0.0,0.0,34,0.00,,CLR,0.00,VWS V14.01,2013-03-11 17:54:00,
2013-03-11 13:58:00,79.3,48.6,30.36,North,0,0.0,0.0,34,0.00,,CLR,0.00,VWS V14.01,2013-03-11 17:58:00,
2013-03-11 14:03:00,79.0,48.2,30.36,North,0,0.0,0.0,34,0.00,,CLR,0.00,VWS V14.01,2013-03-11 18:03:00,
2013-03-11 14:04:00,79.0,48.2,30.36,North,0,0.0,0.0,34,0.00,,CLR,0.00,VWS V14.01,2013-03-11 18:04:00,
2013-03-11 14:07:00,78.4,47.8,30.36,North,0,0.0,0.0,34,0.00,,CLR,0.00,VWS V14.01,2013-03-11 18:07:00,
2013-03-11 14:08:00,78.4,47.8,30.36,North,0,0.0,0.0,34,0.00,,CLR,0.00,VWS V14.01,2013-03-11 18:08:00,
2013-03-11 14:11:00,77.9,48.1,30.36,North,0,0.0,0.0,35,0.00,,CLR,0.00,VWS V14.01,2013-03-11 18:11:00,
2013-03-11 14:14:00,77.7,48.7,30.36,North,0,0.0,0.0,36,0.00,,CLR,0.00,VWS V14.01,2013-03-11 18:14:00,
2013-03-11 14:16:00,77.5,48.5,30.36,North,0,0.0,0.0,36,0.00,,CLR,0.00,VWS V14.01,2013-03-11 18:16:00,
2013-03-11 14:18:00,77.4,49.1,30.36,North,0,0.0,0.0,37,0.00,,CLR,0.00,VWS V14.01,2013-03-11 18:18:00,
2013-03-11 14:19:00,77.4,49.1,30.36,North,0,0.0,0.0,37,0.00,,CLR,0.00,VWS V14.01,2013-03-11 18:19:00,
2013-03-11 14:22:00,77.7,49.4,30.36,North,0,0.0,0.0,37,0.00,,CLR,0.00,VWS V14.01,2013-03-11 18:22:00,
2013-03-11 14:24:00,77.9,50.3,30.36,North,0,0.0,0.0,38,0.00,,CLR,0.00,VWS V14.01,2013-03-11 18:24:00,
2013-03-11 14:26:00,78.4,50.8,30.36,North,0,0.0,0.0,38,0.00,,CLR,0.00,VWS V14.01,2013-03-11 18:26:00,
2013-03-11 14:30:00,79.2,49.9,30.36,North,0,0.0,0.0,36,0.00,,CLR,0.00,VWS V14.01,2013-03-11 18:30:00,
2013-03-11 14:31:00,79.2,49.9,30.36,North,0,0.0,0.0,36,0.00,,CLR,0.00,VWS V14.01,2013-03-11 18:31:00,
2013-03-11 14:32:00,79.3,50.1,30.36,North,0,0.0,0.0,36,0.00,,CLR,0.00,VWS V14.01,2013-03-11 18:32:00,
2013-03-11 14:36:00,79.2,49.9,30.36,North,0,0.0,0.0,36,0.00,,CLR,0.00,VWS V14.01,2013-03-11 18:36:00,
2013-03-11 14:37:00,79.2,49.9,30.36,North,0,0.0,0.0,36,0.00,,CLR,0.00,VWS V14.01,2013-03-11 18:37:00,
2013-03-11 14:38:00,79.0,49.8,30.36,North,0,0.0,0.0,36,0.00,,CLR,0.00,VWS V14.01,2013-03-11 18:38:00,
2013-03-11 14:41:00,79.0,50.5,30.36,North,0,0.0,0.0,37,0.00,,CLR,0.00,VWS V14.01,2013-03-11 18:41:00,
2013-03-11 14:43:00,79.0,51.2,30.36,North,0,0.0,0.0,38,0.00,,CLR,0.00,VWS V14.01,2013-03-11 18:43:00,
2013-03-11 14:46:00,79.2,51.4,30.33,North,0,0.0,0.0,38,0.00,,CLR,0.00,VWS V14.01,2013-03-11 18:46:00,
2013-03-11 14:47:00,79.2,51.4,30.33,North,0,0.0,0.0,38,0.00,,CLR,0.00,VWS V14.01,2013-03-11 18:47:00,
2013-03-11 14:50:00,79.3,50.8,30.33,North,0,0.0,0.0,37,0.00,,CLR,0.00,VWS V14.01,2013-03-11 18:50:00,
2013-03-11 14:52:00,79.3,50.1,30.33,North,0,0.0,0.0,36,0.00,,CLR,0.00,VWS V14.01,2013-03-11 18:52:00,
2013-03-11 14:55:00,79.3,50.1,30.33,North,0,0.0,0.0,36,0.00,,CLR,0.00,VWS V14.01,2013-03-11 18:55:00,
2013-03-11 14:57:00,79.3,50.1,30.33,North,0,0.0,0.0,36,0.00,,CLR,0.00,VWS V14.01,2013-03-11 18:57:00,
2013-03-11 15:00:00,79.5,50.2,30.33,North,0,0.0,0.0,36,0.00,,CLR,0.00,VWS V14.01,2013-03-11 19:00:00,
2013-03-11 15:03:00,79.7,51.2,30.33,North,0,0.0,0.0,37,0.00,,CLR,0.00,VWS V14.01,2013-03-11 19:03:00,
2013-03-11 15:07:00,79.9,49.8,30.33,North,0,0.0,0.0,35,0.00,,CLR,0.00,VWS V14.01,2013-03-11 19:07:00,
2013-03-11 15:09:00,80.1,50.7,30.33,North,0,0.0,0.0,36,0.00,,CLR,0.00,VWS V14.01,2013-03-11 19:09:00,
2013-03-11 15:10:00,80.1,50.7,30.33,North,0,0.0,0.0,36,0.00,,CLR,0.00,VWS V14.01,2013-03-11 19:10:00,
2013-03-11 15:14:00,80.4,50.3,30.33,North,0,0.0,0.0,35,0.00,,CLR,0.00,VWS V14.01,2013-03-11 19:14:00,
2013-03-11 15:17:00,80.8,49.8,30.33,North,0,0.0,0.0,34,0.00,,CLR,0.00,VWS V14.01,2013-03-11 19:17:00,
2013-03-11 15:22:00,81.1,49.3,30.33,North,0,0.0,0.0,33,0.00,,CLR,0.00,VWS V14.01,2013-03-11 19:22:00,
2013-03-11 15:23:00,81.1,49.3,30.33,North,0,0.0,0.0,33,0.00,,CLR,0.00,VWS V14.01,2013-03-11 19:23:00,
2013-03-11 15:28:00,80.8,49.0,30.33,North,0,0.0,0.0,33,0.00,,CLR,0.00,VWS V14.01,2013-03-11 19:28:00,
2013-03-11 15:29:00,80.6,48.9,30.30,North,0,0.0,0.0,33,0.00,,CLR,0.00,VWS V14.01,2013-03-11 19:29:00,
2013-03-11 15:33:00,80.4,50.3,30.30,North,0,0.0,0.0,35,0.00,,CLR,0.00,VWS V14.01,2013-03-11 19:33:00,
2013-03-11 15:34:00,80.2,50.1,30.30,North,0,0.0,0.0,35,0.00,,CLR,0.00,VWS V14.01,2013-03-11 19:34:00,
2013-03-11 15:38:00,80.1,50.0,30.30,North,0,0.0,0.0,35,0.00,,CLR,0.00,VWS V14.01,2013-03-11 19:38:00,
2013-03-11 15:39:00,79.9,49.8,30.30,North,0,0.0,0.0,35,0.00,,CLR,0.00,VWS V14.01,2013-03-11 19:39:00,
2013-03-11 15:40:00,79.9,49.8,30.30,North,0,0.0,0.0,35,0.00,,CLR,0.00,VWS V14.01,2013-03-11 19:40:00,
2013-03-11 15:44:00,79.9,49.8,30.33,North,0,0.0,0.0,35,0.00,,CLR,0.00,VWS V14.01,2013-03-11 19:44:00,
2013-03-11 15:45:00,80.1,50.0,30.33,North,0,0.0,0.0,35,0.00,,CLR,0.00,VWS V14.01,2013-03-11 19:45:00,
2013-03-11 15:50:00,79.9,49.8,30.33,North,0,0.0,0.0,35,0.00,,CLR,0.00,VWS V14.01,2013-03-11 19:50:00,
2013-03-11 15:51:00,79.9,49.8,30.33,North,0,0.0,0.0,35,0.00,,CLR,0.00,VWS V14.01,2013-03-11 19:51:00,
2013-03-11 15:55:00,79.9,50.6,30.33,North,0,0.0,0.0,36,0.00,,CLR,0.00,VWS V14.01,2013-03-11 19:55:00,
2013-03-11 15:56:00,80.1,50.7,30.33,North,0,0.0,0.0,36,0.00,,CLR,0.00,VWS V14.01,2013-03-11 19:56:00,
2013-03-11 16:00:00,80.4,50.3,30.30,North,0,0.0,0.0,35,0.00,,CLR,0.00,VWS V14.01,2013-03-11 20:00:00,
2013-03-11 16:01:00,80.6,50.5,30.30,North,0,0.0,0.0,35,0.00,,CLR,0.00,VWS V14.01,2013-03-11 20:01:00,
2013-03-11 16:05:00,80.6,50.5,30.30,North,0,0.0,0.0,35,0.00,,CLR,0.00,VWS V14.01,2013-03-11 20:05:00,
2013-03-11 16:06:00,80.6,50.5,30.30,North,0,0.0,0.0,35,0.00,,CLR,0.00,VWS V14.01,2013-03-11 20:06:00,
2013-03-11 16:10:00,81.0,49.2,30.30,North,0,0.0,0.0,33,0.00,,CLR,0.00,VWS V14.01,2013-03-11 20:10:00,
2013-03-11 16:11:00,81.0,49.2,30.30,North,0,0.0,0.0,33,0.00,,CLR,0.00,VWS V14.01,2013-03-11 20:11:00,
2013-03-11 16:13:00,81.0,49.2,30.30,North,0,0.0,0.0,33,0.00,,CLR,0.00,VWS V14.01,2013-03-11 20:13:00,
2013-03-11 16:16:00,81.0,49.2,30.30,North,0,0.0,0.0,33,0.00,,CLR,0.00,VWS V14.01,2013-03-11 20:16:00,
2013-03-11 16:17:00,81.0,49.2,30.30,North,0,0.0,0.0,33,0.00,,CLR,0.00,VWS V14.01,2013-03-11 20:17:00,
2013-03-11 16:21:00,81.0,49.2,30.30,North,0,0.0,0.0,33,0.00,,CLR,0.00,VWS V14.01,2013-03-11 20:21:00,
2013-03-11 16:24:00,81.0,49.2,30.30,North,0,0.0,0.0,33,0.00,,CLR,0.00,VWS V14.01,2013-03-11 20:24:00,
2013-03-11 16:26:00,81.0,49.2,30.30,North,0,0.0,0.0,33,0.00,,CLR,0.00,VWS V14.01,2013-03-11 20:26:00,
2013-03-11 16:31:00,81.0,49.2,30.30,North,0,0.0,0.0,33,0.00,,CLR,0.00,VWS V14.01,2013-03-11 20:31:00,
2013-03-11 16:34:00,81.0,49.2,30.30,North,0,0.0,0.0,33,0.00,,CLR,0.00,VWS V14.01,2013-03-11 20:34:00,
2013-03-11 16:36:00,81.0,49.2,30.30,North,0,0.0,0.0,33,0.00,,CLR,0.00,VWS V14.01,2013-03-11 20:36:00,
2013-03-11 16:41:00,80.6,50.5,30.30,North,0,0.0,0.0,35,0.00,,CLR,0.00,VWS V14.01,2013-03-11 20:41:00,
2013-03-11 16:42:00,80.6,49.7,30.30,North,0,0.0,0.0,34,0.00,,CLR,0.00,VWS V14.01,2013-03-11 20:42:00,
2013-03-11 16:43:00,80.6,49.7,30.30,North,0,0.0,0.0,34,0.00,,CLR,0.00,VWS V14.01,2013-03-11 20:43:00,
2013-03-11 16:48:00,80.8,49.8,30.30,North,0,0.0,0.0,34,0.00,,CLR,0.00,VWS V14.01,2013-03-11 20:48:00,
2013-03-11 16:49:00,80.8,49.8,30.30,North,0,0.0,0.0,34,0.00,,CLR,0.00,VWS V14.01,2013-03-11 20:49:00,
2013-03-11 16:53:00,81.0,49.2,30.30,North,0,0.0,0.0,33,0.00,,CLR,0.00,VWS V14.01,2013-03-11 20:53:00,
2013-03-11 16:54:00,80.8,49.0,30.30,North,0,0.0,0.0,33,0.00,,CLR,0.00,VWS V14.01,2013-03-11 20:54:00,
2013-03-11 16:55:00,81.0,49.2,30.30,North,0,0.0,0.0,33,0.00,,CLR,0.00,VWS V14.01,2013-03-11 20:55:00,
2013-03-11 17:00:00,81.0,48.4,30.27,North,0,0.0,0.0,32,0.00,,CLR,0.00,VWS V14.01,2013-03-11 21:00:00,
2013-03-11 17:02:00,81.1,48.5,30.27,North,0,0.0,0.0,32,0.00,,CLR,0.00,VWS V14.01,2013-03-11 21:02:00,
2013-03-11 17:05:00,81.1,49.3,30.27,North,0,0.0,0.0,33,0.00,,CLR,0.00,VWS V14.01,2013-03-11 21:05:00,
2013-03-11 17:09:00,81.1,49.3,30.27,North,0,0.0,0.0,33,0.00,,CLR,0.00,VWS V14.01,2013-03-11 21:09:00,
2013-03-11 17:10:00,81.1,48.5,30.27,North,0,0.0,0.0,32,0.00,,CLR,0.00,VWS V14.01,2013-03-11 21:10:00,
2013-03-11 17:13:00,81.1,48.5,30.27,North,0,0.0,0.0,32,0.00,,CLR,0.00,VWS V14.01,2013-03-11 21:13:00,
2013-03-11 17:14:00,81.3,48.7,30.27,North,0,0.0,0.0,32,0.00,,CLR,0.00,VWS V14.01,2013-03-11 21:14:00,
2013-03-11 17:15:00,81.3,48.7,30.27,North,0,0.0,0.0,32,0.00,,CLR,0.00,VWS V14.01,2013-03-11 21:15:00,
2013-03-11 17:19:00,81.3,48.7,30.27,North,0,0.0,0.0,32,0.00,,CLR,0.00,VWS V14.01,2013-03-11 21:19:00,
2013-03-11 17:21:00,81.3,48.7,30.27,North,0,0.0,0.0,32,0.00,,CLR,0.00,VWS V14.01,2013-03-11 21:21:00,
2013-03-11 17:25:00,81.3,48.7,30.27,North,0,0.0,0.0,32,0.00,,CLR,0.00,VWS V14.01,2013-03-11 21:25:00,
2013-03-11 17:26:00,81.3,47.8,30.27,North,0,0.0,0.0,31,0.00,,CLR,0.00,VWS V14.01,2013-03-11 21:26:00,
2013-03-11 17:27:00,81.3,48.7,30.27,North,0,0.0,0.0,32,0.00,,CLR,0.00,VWS V14.01,2013-03-11 21:27:00,
2013-03-11 17:28:00,81.1,48.5,30.27,North,0,0.0,0.0,32,0.00,,CLR,0.00,VWS V14.01,2013-03-11 21:28:00,
2013-03-11 17:32:00,81.0,48.4,30.27,North,0,0.0,0.0,32,0.00,,CLR,0.00,VWS V14.01,2013-03-11 21:32:00,
2013-03-11 17:33:00,81.0,48.4,30.27,North,0,0.0,0.0,32,0.00,,CLR,0.00,VWS V14.01,2013-03-11 21:33:00,
2013-03-11 17:35:00,81.0,48.4,30.27,North,0,0.0,0.0,32,0.00,,CLR,0.00,VWS V14.01,2013-03-11 21:35:00,
2013-03-11 17:38:00,81.0,48.4,30.27,North,0,0.0,0.0,32,0.00,,CLR,0.00,VWS V14.01,2013-03-11 21:38:00,
2013-03-11 17:40:00,81.0,48.4,30.27,North,0,0.0,0.0,32,0.00,,CLR,0.00,VWS V14.01,2013-03-11 21:40:00,
2013-03-11 17:43:00,81.1,48.5,30.27,North,0,0.0,0.0,32,0.00,,CLR,0.00,VWS V14.01,2013-03-11 21:43:00,
2013-03-11 17:45:00,81.1,48.5,30.27,North,0,0.0,0.0,32,0.00,,CLR,0.00,VWS V14.01,2013-03-11 21:45:00,
2013-03-11 17:46:00,81.1,48.5,30.27,North,0,0.0,0.0,32,0.00,,CLR,0.00,VWS V14.01,2013-03-11 21:46:00,
2013-03-11 17:50:00,81.1,48.5,30.27,North,0,0.0,0.0,32,0.00,,CLR,0.00,VWS V14.01,2013-03-11 21:50:00,
2013-03-11 17:51:00,81.1,48.5,30.27,North,0,0.0,0.0,32,0.00,,CLR,0.00,VWS V14.01,2013-03-11 21:51:00,
2013-03-11 17:53:00,81.1,48.5,30.27,North,0,0.0,0.0,32,0.00,,CLR,0.00,VWS V14.01,2013-03-11 21:53:00,
2013-03-11 17:54:00,81.0,48.4,30.27,North,0,0.0,0.0,32,0.00,,CLR,0.00,VWS V14.01,2013-03-11 21:54:00,
2013-03-11 17:55:00,81.0,47.5,30.27,North,0,0.0,0.0,31,0.00,,CLR,0.00,VWS V14.01,2013-03-11 21:55:00,
2013-03-11 17:56:00,81.0,47.5,30.27,North,0,0.0,0.0,31,0.00,,CLR,0.00,VWS V14.01,2013-03-11 21:56:00,
2013-03-11 18:00:00,81.0,47.5,30.27,North,0,0.0,0.0,31,0.00,,CLR,0.00,VWS V14.01,2013-03-11 22:00:00,
2013-03-11 18:01:00,81.0,47.5,30.27,North,0,0.0,0.0,31,0.00,,CLR,0.00,VWS V14.01,2013-03-11 22:01:00,
2013-03-11 18:05:00,80.8,48.2,30.27,North,0,0.0,0.0,32,0.00,,CLR,0.00,VWS V14.01,2013-03-11 22:05:00,
2013-03-11 18:08:00,80.8,48.2,30.27,North,0,0.0,0.0,32,0.00,,CLR,0.00,VWS V14.01,2013-03-11 22:08:00,
2013-03-11 18:11:00,80.6,48.0,30.27,North,0,0.0,0.0,32,0.00,,CLR,0.00,VWS V14.01,2013-03-11 22:11:00,
2013-03-11 18:13:00,80.6,48.0,30.27,North,0,0.0,0.0,32,0.00,,CLR,0.00,VWS V14.01,2013-03-11 22:13:00,
2013-03-11 18:15:00,80.6,48.0,30.27,North,0,0.0,0.0,32,0.00,,CLR,0.00,VWS V14.01,2013-03-11 22:15:00,
2013-03-11 18:16:00,80.4,48.7,30.27,North,0,0.0,0.0,33,0.00,,CLR,0.00,VWS V14.01,2013-03-11 22:16:00,
2013-03-11 18:19:00,80.4,48.7,30.27,North,0,0.0,0.0,33,0.00,,CLR,0.00,VWS V14.01,2013-03-11 22:19:00,
2013-03-11 18:22:00,80.2,48.5,30.27,North,0,0.0,0.0,33,0.00,,CLR,0.00,VWS V14.01,2013-03-11 22:22:00,
2013-03-11 18:23:00,80.2,49.3,30.27,North,0,0.0,0.0,34,0.00,,CLR,0.00,VWS V14.01,2013-03-11 22:23:00,
2013-03-11 18:24:00,80.1,49.2,30.27,North,0,0.0,0.0,34,0.00,,CLR,0.00,VWS V14.01,2013-03-11 22:24:00,
2013-03-11 18:28:00,80.1,49.2,30.27,North,0,0.0,0.0,34,0.00,,CLR,0.00,VWS V14.01,2013-03-11 22:28:00,
2013-03-11 18:32:00,79.9,49.8,30.27,North,0,0.0,0.0,35,0.00,,CLR,0.00,VWS V14.01,2013-03-11 22:32:00,
2013-03-11 18:37:00,79.5,49.5,30.27,North,0,0.0,0.0,35,0.00,,CLR,0.00,VWS V14.01,2013-03-11 22:37:00,
2013-03-11 18:38:00,79.5,49.5,30.27,North,0,0.0,0.0,35,0.00,,CLR,0.00,VWS V14.01,2013-03-11 22:38:00,
2013-03-11 18:43:00,78.8,48.9,30.27,North,0,0.0,0.0,35,0.00,,CLR,0.00,VWS V14.01,2013-03-11 22:43:00,
2013-03-11 18:45:00,78.6,49.5,30.30,North,0,0.0,0.0,36,0.00,,CLR,0.00,VWS V14.01,2013-03-11 22:45:00,
2013-03-11 19:30:00,74.7,51.3,30.30,North,0,0.0,0.0,44,0.00,,CLR,0.00,VWS V14.01,2013-03-11 23:30:00,
2013-03-11 19:31:00,74.7,51.3,30.30,North,0,0.0,0.0,44,0.00,,CLR,0.00,VWS V14.01,2013-03-11 23:31:00,
2013-03-11 19:33:00,74.5,51.2,30.30,North,0,0.0,0.0,44,0.00,,CLR,0.00,VWS V14.01,2013-03-11 23:33:00,
2013-03-11 19:36:00,74.3,51.6,30.30,North,0,0.0,0.0,45,0.00,,CLR,0.00,VWS V14.01,2013-03-11 23:36:00,
2013-03-11 19:38:00,74.1,51.4,30.30,North,0,0.0,0.0,45,0.00,,CLR,0.00,VWS V14.01,2013-03-11 23:38:00,
2013-03-11 19:41:00,74.1,51.4,30.30,North,0,0.0,0.0,45,0.00,,CLR,0.00,VWS V14.01,2013-03-11 23:41:00,
2013-03-11 19:42:00,73.9,51.3,30.30,North,0,0.0,0.0,45,0.00,,CLR,0.00,VWS V14.01,2013-03-11 23:42:00,
2013-03-11 19:46:00,73.8,51.7,30.30,North,0,0.0,0.0,46,0.00,,CLR,0.00,VWS V14.01,2013-03-11 23:46:00,
2013-03-11 19:47:00,73.8,51.7,30.30,North,0,0.0,0.0,46,0.00,,CLR,0.00,VWS V14.01,2013-03-11 23:47:00,
2013-03-11 19:49:00,73.8,51.7,30.30,North,0,0.0,0.0,46,0.00,,CLR,0.00,VWS V14.01,2013-03-11 23:49:00,
2013-03-11 19:51:00,73.6,51.5,30.30,North,0,0.0,0.0,46,0.00,,CLR,0.00,VWS V14.01,2013-03-11 23:51:00,
2013-03-11 19:52:00,73.6,52.1,30.30,North,0,0.0,0.0,47,0.00,,CLR,0.00,VWS V14.01,2013-03-11 23:52:00,
2013-03-11 19:56:00,73.4,52.0,30.30,North,0,0.0,0.0,47,0.00,,CLR,0.00,VWS V14.01,2013-03-11 23:56:00,
2013-03-11 19:57:00,73.4,52.0,30.30,North,0,0.0,0.0,47,0.00,,CLR,0.00,VWS V14.01,2013-03-11 23:57:00,
2013-03-11 19:58:00,73.4,52.5,30.30,North,0,0.0,0.0,48,0.00,,CLR,0.00,VWS V14.01,2013-03-11 23:58:00,
2013-03-11 20:01:00,73.2,52.4,30.30,North,0,0.0,0.0,48,0.00,,CLR,0.00,VWS V14.01,2013-03-12 00:01:00,
2013-03-11 20:03:00,73.2,52.9,30.30,North,0,0.0,0.0,49,0.00,,CLR,0.00,VWS V14.01,2013-03-12 00:03:00,
2013-03-11 20:04:00,73.2,52.9,30.30,North,0,0.0,0.0,49,0.00,,CLR,0.00,VWS V14.01,2013-03-12 00:04:00,
2013-03-11 20:07:00,73.2,52.9,30.30,North,0,0.0,0.0,49,0.00,,CLR,0.00,VWS V14.01,2013-03-12 00:07:00,
2013-03-11 20:09:00,73.2,52.9,30.30,North,0,0.0,0.0,49,0.00,,CLR,0.00,VWS V14.01,2013-03-12 00:09:00,
2013-03-11 20:12:00,73.2,53.5,30.30,North,0,0.0,0.0,50,0.00,,CLR,0.00,VWS V14.01,2013-03-12 00:12:00,
2013-03-11 20:14:00,73.0,53.3,30.30,North,0,0.0,0.0,50,0.00,,CLR,0.00,VWS V14.01,2013-03-12 00:14:00,
2013-03-11 20:15:00,73.0,53.3,30.30,North,0,0.0,0.0,50,0.00,,CLR,0.00,VWS V14.01,2013-03-12 00:15:00,
2013-03-11 20:20:00,73.0,53.3,30.30,North,0,0.0,0.0,50,0.00,,CLR,0.00,VWS V14.01,2013-03-12 00:20:00,
2013-03-11 20:22:00,72.9,53.2,30.30,North,0,0.0,0.0,50,0.00,,CLR,0.00,VWS V14.01,2013-03-12 00:22:00,
2013-03-11 20:25:00,72.9,53.2,30.30,North,0,0.0,0.0,50,0.00,,CLR,0.00,VWS V14.01,2013-03-12 00:25:00,
2013-03-11 20:26:00,72.9,53.2,30.30,North,0,0.0,0.0,50,0.00,,CLR,0.00,VWS V14.01,2013-03-12 00:26:00,
2013-03-11 20:28:00,72.9,53.7,30.30,North,0,0.0,0.0,51,0.00,,CLR,0.00,VWS V14.01,2013-03-12 00:28:00,
2013-03-11 20:31:00,72.7,53.5,30.30,North,0,0.0,0.0,51,0.00,,CLR,0.00,VWS V14.01,2013-03-12 00:31:00,
2013-03-11 20:33:00,72.7,53.5,30.30,North,0,0.0,0.0,51,0.00,,CLR,0.00,VWS V14.01,2013-03-12 00:33:00,
2013-03-11 20:34:00,72.7,53.5,30.30,North,0,0.0,0.0,51,0.00,,CLR,0.00,VWS V14.01,2013-03-12 00:34:00,
2013-03-11 20:36:00,72.7,53.5,30.30,North,0,0.0,0.0,51,0.00,,CLR,0.00,VWS V14.01,2013-03-12 00:36:00,
2013-03-11 20:39:00,72.5,53.4,30.30,North,0,0.0,0.0,51,0.00,,CLR,0.00,VWS V14.01,2013-03-12 00:39:00,
2013-03-11 20:41:00,72.5,53.4,30.30,North,0,0.0,0.0,51,0.00,,CLR,0.00,VWS V14.01,2013-03-12 00:41:00,
2013-03-11 20:46:00,72.5,53.9,30.30,North,0,0.0,0.0,52,0.00,,CLR,0.00,VWS V14.01,2013-03-12 00:46:00,
2013-03-11 20:48:00,72.3,53.7,30.30,North,0,0.0,0.0,52,0.00,,CLR,0.00,VWS V14.01,2013-03-12 00:48:00,
2013-03-11 20:49:00,72.3,53.7,30.30,North,0,0.0,0.0,52,0.00,,CLR,0.00,VWS V14.01,2013-03-12 00:49:00,
2013-03-11 20:52:00,72.3,53.7,30.30,North,0,0.0,0.0,52,0.00,,CLR,0.00,VWS V14.01,2013-03-12 00:52:00,
2013-03-11 20:54:00,72.3,53.7,30.30,North,0,0.0,0.0,52,0.00,,CLR,0.00,VWS V14.01,2013-03-12 00:54:00,
2013-03-11 20:55:00,72.1,53.6,30.30,North,0,0.0,0.0,52,0.00,,CLR,0.00,VWS V14.01,2013-03-12 00:55:00,
2013-03-11 20:57:00,72.1,53.6,30.30,North,0,0.0,0.0,52,0.00,,CLR,0.00,VWS V14.01,2013-03-12 00:57:00,
2013-03-11 20:59:00,72.1,54.1,30.30,North,0,0.0,0.0,53,0.00,,CLR,0.00,VWS V14.01,2013-03-12 00:59:00,
2013-03-11 21:00:00,72.1,54.1,30.30,North,0,0.0,0.0,53,0.00,,CLR,0.00,VWS V14.01,2013-03-12 01:00:00,
2013-03-11 21:03:00,72.0,53.9,30.30,North,0,0.0,0.0,53,0.00,,CLR,0.00,VWS V14.01,2013-03-12 01:03:00,
2013-03-11 21:04:00,72.0,53.9,30.30,North,0,0.0,0.0,53,0.00,,CLR,0.00,VWS V14.01,2013-03-12 01:04:00,
2013-03-11 21:07:00,72.0,53.9,30.30,North,0,0.0,0.0,53,0.00,,CLR,0.00,VWS V14.01,2013-03-12 01:07:00,
2013-03-11 21:09:00,72.0,53.9,30.30,North,0,0.0,0.0,53,0.00,,CLR,0.00,VWS V14.01,2013-03-12 01:09:00,
2013-03-11 21:10:00,71.8,53.8,30.30,North,0,0.0,0.0,53,0.00,,CLR,0.00,VWS V14.01,2013-03-12 01:10:00,
2013-03-11 21:15:00,71.8,54.3,30.30,North,0,0.0,0.0,54,0.00,,CLR,0.00,VWS V14.01,2013-03-12 01:15:00,
2013-03-11 21:16:00,71.8,54.3,30.30,North,0,0.0,0.0,54,0.00,,CLR,0.00,VWS V14.01,2013-03-12 01:16:00,
2013-03-11 21:17:00,71.8,54.3,30.30,North,0,0.0,0.0,54,0.00,,CLR,0.00,VWS V14.01,2013-03-12 01:17:00,
2013-03-11 21:21:00,71.6,54.6,30.30,North,0,0.0,0.0,55,0.00,,CLR,0.00,VWS V14.01,2013-03-12 01:21:00,
2013-03-11 21:22:00,71.6,54.6,30.30,North,0,0.0,0.0,55,0.00,,CLR,0.00,VWS V14.01,2013-03-12 01:22:00,
2013-03-11 21:25:00,71.6,54.6,30.30,North,0,0.0,0.0,55,0.00,,CLR,0.00,VWS V14.01,2013-03-12 01:25:00,
2013-03-11 21:27:00,71.4,54.9,30.30,North,0,0.0,0.0,56,0.00,,CLR,0.00,VWS V14.01,2013-03-12 01:27:00,
2013-03-11 21:28:00,71.4,54.9,30.30,North,0,0.0,0.0,56,0.00,,CLR,0.00,VWS V14.01,2013-03-12 01:28:00,
2013-03-11 21:31:00,71.4,54.9,30.30,North,0,0.0,0.0,56,0.00,,CLR,0.00,VWS V14.01,2013-03-12 01:31:00,
2013-03-11 21:34:00,71.4,55.4,30.30,North,0,0.0,0.0,57,0.00,,CLR,0.00,VWS V14.01,2013-03-12 01:34:00,
2013-03-11 21:35:00,71.2,55.2,30.30,North,0,0.0,0.0,57,0.00,,CLR,0.00,VWS V14.01,2013-03-12 01:35:00,
2013-03-11 21:37:00,71.2,55.2,30.30,North,0,0.0,0.0,57,0.00,,CLR,0.00,VWS V14.01,2013-03-12 01:37:00,
2013-03-11 21:38:00,71.2,55.2,30.30,North,0,0.0,0.0,57,0.00,,CLR,0.00,VWS V14.01,2013-03-12 01:38:00,
2013-03-11 21:43:00,71.2,55.2,30.30,North,0,0.0,0.0,57,0.00,,CLR,0.00,VWS V14.01,2013-03-12 01:43:00,
2013-03-11 21:44:00,71.1,55.5,30.30,North,0,0.0,0.0,58,0.00,,CLR,0.00,VWS V14.01,2013-03-12 01:44:00,
2013-03-11 21:49:00,70.9,55.4,30.30,North,0,0.0,0.0,58,0.00,,CLR,0.00,VWS V14.01,2013-03-12 01:49:00,
2013-03-11 21:50:00,70.9,55.4,30.30,North,0,0.0,0.0,58,0.00,,CLR,0.00,VWS V14.01,2013-03-12 01:50:00,
2013-03-11 21:54:00,70.7,55.2,30.30,North,0,0.0,0.0,58,0.00,,CLR,0.00,VWS V14.01,2013-03-12 01:54:00,
2013-03-11 21:57:00,70.7,55.7,30.30,North,0,0.0,0.0,59,0.00,,CLR,0.00,VWS V14.01,2013-03-12 01:57:00,
2013-03-11 21:59:00,70.7,55.7,30.30,North,0,0.0,0.0,59,0.00,,CLR,0.00,VWS V14.01,2013-03-12 01:59:00,
2013-03-11 22:02:00,70.5,55.5,30.30,North,0,0.0,0.0,59,0.00,,CLR,0.00,VWS V14.01,2013-03-12 02:02:00,
2013-03-11 22:03:00,70.5,55.5,30.30,North,0,0.0,0.0,59,0.00,,CLR,0.00,VWS V14.01,2013-03-12 02:03:00,
2013-03-11 22:08:00,70.3,55.8,30.30,North,0,0.0,0.0,60,0.00,,CLR,0.00,VWS V14.01,2013-03-12 02:08:00,
2013-03-11 22:09:00,70.3,55.8,30.30,North,0,0.0,0.0,60,0.00,,CLR,0.00,VWS V14.01,2013-03-12 02:09:00,
2013-03-11 22:10:00,70.3,55.8,30.30,North,0,0.0,0.0,60,0.00,,CLR,0.00,VWS V14.01,2013-03-12 02:10:00,
2013-03-11 22:14:00,70.2,55.6,30.30,North,0,0.0,0.0,60,0.00,,CLR,0.00,VWS V14.01,2013-03-12 02:14:00,
2013-03-11 22:15:00,70.2,55.6,30.30,North,0,0.0,0.0,60,0.00,,CLR,0.00,VWS V14.01,2013-03-12 02:15:00,
2013-03-11 22:18:00,70.2,56.1,30.30,North,0,0.0,0.0,61,0.00,,CLR,0.00,VWS V14.01,2013-03-12 02:18:00,
2013-03-11 22:19:00,70.0,55.9,30.30,North,0,0.0,0.0,61,0.00,,CLR,0.00,VWS V14.01,2013-03-12 02:19:00,
2013-03-11 22:20:00,70.0,55.9,30.30,North,0,0.0,0.0,61,0.00,,CLR,0.00,VWS V14.01,2013-03-12 02:20:00,
2013-03-11 22:22:00,70.0,55.9,30.30,North,0,0.0,0.0,61,0.00,,CLR,0.00,VWS V14.01,2013-03-12 02:22:00,
2013-03-11 22:23:00,70.0,55.9,30.30,North,0,0.0,0.0,61,0.00,,CLR,0.00,VWS V14.01,2013-03-12 02:23:00,
2013-03-11 22:25:00,70.0,55.9,30.30,North,0,0.0,0.0,61,0.00,,CLR,0.00,VWS V14.01,2013-03-12 02:25:00,
2013-03-11 22:28:00,69.8,56.2,30.30,North,0,0.0,0.0,62,0.00,,CLR,0.00,VWS V14.01,2013-03-12 02:28:00,
2013-03-11 22:29:00,69.8,56.2,30.30,North,0,0.0,0.0,62,0.00,,CLR,0.00,VWS V14.01,2013-03-12 02:29:00,
2013-03-11 22:32:00,69.8,56.2,30.30,North,0,0.0,0.0,62,0.00,,CLR,0.00,VWS V14.01,2013-03-12 02:32:00,
2013-03-11 22:33:00,69.8,56.2,30.30,North,0,0.0,0.0,62,0.00,,CLR,0.00,VWS V14.01,2013-03-12 02:33:00,
2013-03-11 22:34:00,69.6,56.5,30.30,North,0,0.0,0.0,63,0.00,,CLR,0.00,VWS V14.01,2013-03-12 02:34:00,
2013-03-11 22:35:00,69.6,56.5,30.30,North,0,0.0,0.0,63,0.00,,CLR,0.00,VWS V14.01,2013-03-12 02:35:00,
2013-03-11 22:39:00,69.6,56.5,30.30,North,0,0.0,0.0,63,0.00,,CLR,0.00,VWS V14.01,2013-03-12 02:39:00,
2013-03-11 22:41:00,69.4,56.3,30.30,North,0,0.0,0.0,63,0.00,,CLR,0.00,VWS V14.01,2013-03-12 02:41:00,
2013-03-11 22:43:00,69.4,56.8,30.30,North,0,0.0,0.0,64,0.00,,CLR,0.00,VWS V14.01,2013-03-12 02:43:00,
2013-03-11 22:45:00,69.4,56.8,30.30,North,0,0.0,0.0,64,0.00,,CLR,0.00,VWS V14.01,2013-03-12 02:45:00,
2013-03-11 22:46:00,69.4,56.8,30.30,North,0,0.0,0.0,64,0.00,,CLR,0.00,VWS V14.01,2013-03-12 02:46:00,
2013-03-11 22:48:00,69.4,56.8,30.30,North,0,0.0,0.0,64,0.00,,CLR,0.00,VWS V14.01,2013-03-12 02:48:00,
2013-03-11 22:52:00,69.3,56.6,30.30,North,0,0.0,0.0,64,0.00,,CLR,0.00,VWS V14.01,2013-03-12 02:52:00,
2013-03-11 22:53:00,69.3,56.6,30.30,North,0,0.0,0.0,64,0.00,,CLR,0.00,VWS V14.01,2013-03-12 02:53:00,
2013-03-11 22:54:00,69.3,56.6,30.30,North,0,0.0,0.0,64,0.00,,CLR,0.00,VWS V14.01,2013-03-12 02:54:00,
2013-03-11 22:59:00,69.3,57.0,30.30,North,0,0.0,0.0,65,0.00,,CLR,0.00,VWS V14.01,2013-03-12 02:59:00,
2013-03-11 23:02:00,69.3,57.0,30.30,North,0,0.0,0.0,65,0.00,,CLR,0.00,VWS V14.01,2013-03-12 03:02:00,
2013-03-11 23:04:00,69.1,56.8,30.30,North,0,0.0,0.0,65,0.00,,CLR,0.00,VWS V14.01,2013-03-12 03:04:00,
2013-03-11 23:05:00,69.1,56.8,30.30,North,0,0.0,0.0,65,0.00,,CLR,0.00,VWS V14.01,2013-03-12 03:05:00,
2013-03-11 23:06:00,69.1,56.8,30.30,North,0,0.0,0.0,65,0.00,,CLR,0.00,VWS V14.01,2013-03-12 03:06:00,
2013-03-11 23:08:00,69.1,56.8,30.30,North,0,0.0,0.0,65,0.00,,CLR,0.00,VWS V14.01,2013-03-12 03:08:00,
2013-03-11 23:10:00,69.1,56.8,30.30,North,0,0.0,0.0,65,0.00,,CLR,0.00,VWS V14.01,2013-03-12 03:10:00,
2013-03-11 23:14:00,69.1,57.3,30.30,North,0,0.0,0.0,66,0.00,,CLR,0.00,VWS V14.01,2013-03-12 03:14:00,
2013-03-11 23:19:00,68.9,57.1,30.30,North,0,0.0,0.0,66,0.00,,CLR,0.00,VWS V14.01,2013-03-12 03:19:00,
2013-03-11 23:20:00,68.9,57.1,30.30,North,0,0.0,0.0,66,0.00,,CLR,0.00,VWS V14.01,2013-03-12 03:20:00,
2013-03-11 23:21:00,68.9,57.1,30.30,North,0,0.0,0.0,66,0.00,,CLR,0.00,VWS V14.01,2013-03-12 03:21:00,
2013-03-11 23:23:00,68.9,57.1,30.30,North,0,0.0,0.0,66,0.00,,CLR,0.00,VWS V14.01,2013-03-12 03:23:00,
2013-03-11 23:25:00,68.7,56.9,30.30,North,0,0.0,0.0,66,0.00,,CLR,0.00,VWS V14.01,2013-03-12 03:25:00,
2013-03-11 23:27:00,68.7,56.9,30.30,North,0,0.0,0.0,66,0.00,,CLR,0.00,VWS V14.01,2013-03-12 03:27:00,
2013-03-11 23:30:00,68.7,56.9,30.30,North,0,0.0,0.0,66,0.00,,CLR,0.00,VWS V14.01,2013-03-12 03:30:00,
2013-03-11 23:32:00,68.7,56.9,30.30,North,0,0.0,0.0,66,0.00,,CLR,0.00,VWS V14.01,2013-03-12 03:32:00,
2013-03-11 23:34:00,68.7,56.9,30.30,North,0,0.0,0.0,66,0.00,,CLR,0.00,VWS V14.01,2013-03-12 03:34:00,
2013-03-11 23:39:00,68.5,56.7,30.30,North,0,0.0,0.0,66,0.00,,CLR,0.00,VWS V14.01,2013-03-12 03:39:00,
2013-03-11 23:40:00,68.5,56.7,30.30,North,0,0.0,0.0,66,0.00,,CLR,0.00,VWS V14.01,2013-03-12 03:40:00,
2013-03-11 23:42:00,68.5,56.7,30.30,North,0,0.0,0.0,66,0.00,,CLR,0.00,VWS V14.01,2013-03-12 03:42:00,
2013-03-11 23:44:00,68.5,56.7,30.30,North,0,0.0,0.0,66,0.00,,CLR,0.00,VWS V14.01,2013-03-12 03:44:00,
2013-03-11 23:45:00,68.5,56.7,30.30,North,0,0.0,0.0,66,0.00,,CLR,0.00,VWS V14.01,2013-03-12 03:45:00,
2013-03-11 23:48:00,68.5,56.7,30.30,North,0,0.0,0.0,66,0.00,,CLR,0.00,VWS V14.01,2013-03-12 03:48:00,
2013-03-11 23:50:00,68.5,56.7,30.30,North,0,0.0,0.0,66,0.00,,CLR,0.00,VWS V14.01,2013-03-12 03:50:00,
2013-03-11 23:54:00,68.5,56.7,30.30,North,0,0.0,0.0,66,0.00,,CLR,0.00,VWS V14.01,2013-03-12 03:54:00,
2013-03-11 23:55:00,68.5,56.7,30.30,North,0,0.0,0.0,66,0.00,,CLR,0.00,VWS V14.01,2013-03-12 03:55:00,
2013-03-11 23:57:00,68.4,56.6,30.30,North,0,0.0,0.0,66,0.00,,CLR,0.00,VWS V14.01,2013-03-12 03:57:00,